Observation data for Persimmon Gap on 12/07/2018      Previous  Date       Current Mesonet Observations  Soil Data  Daily Summary Page  Observations in Plain Language
KPG1 070600Z 02016KT 10/07 A3021 RMK A01 T01000072  RH  083%=      5-min Rain = 0
KPG1 070601Z 01016KT 10/07 A3021 RMK A01 T01000072  RH  083%=      5-min Rain = 0
KPG1 070602Z 02017KT 10/07 A3021 RMK A01 T01000072  RH  083%=      5-min Rain = 0
KPG1 070603Z 02016KT 10/07 A3021 RMK A01 T01000072  RH  083%=      5-min Rain = 0
KPG1 070604Z 01016KT 10/07 A3021 RMK A01 T01000072  RH  083%=      5-min Rain = 0
KPG1 070605Z 02017KT 10/07 A3021 RMK A01 T01000072  RH  083%=      5-min Rain = 0
KPG1 070606Z 01016G21KT 10/07 A3021 RMK A01 T01000072  RH  083%=      5-min Rain = 0
KPG1 070607Z 02018KT 10/07 A3021 RMK A01 T01000072  RH  083%=      5-min Rain = 0
KPG1 070608Z 02017KT 10/07 A3021 RMK A01 T01000072  RH  083%=      5-min Rain = 0
KPG1 070609Z 02020KT 10/07 A3021 RMK A01 T01000072  RH  083%=      5-min Rain = 0
KPG1 070610Z 02017KT 10/07 A3021 RMK A01 T01000072  RH  082%=      5-min Rain = 0
KPG1 070611Z 01017KT 10/07 A3021 RMK A01 T01000072  RH  082%=      5-min Rain = 0
KPG1 070612Z 02018KT 10/07 A3021 RMK A01 T01000072  RH  082%=      5-min Rain = 0
KPG1 070613Z 02015KT 10/07 A3021 RMK A01 T01010072  RH  082%=      5-min Rain = 0
KPG1 070614Z 02017KT 10/07 A3021 RMK A01 T01000072  RH  083%=      5-min Rain = 0
KPG1 070615Z 01015KT 10/07 A3021 RMK A01 T01000072  RH  083%=      5-min Rain = 0
KPG1 070616Z 01016KT 10/07 A3021 RMK A01 T01000072  RH  083%=      5-min Rain = 0
KPG1 070617Z 01016KT 10/07 A3021 RMK A01 T01010072  RH  083%=      5-min Rain = 0
KPG1 070618Z 01016KT 10/07 A3021 RMK A01 T01000072  RH  083%=      5-min Rain = 0
KPG1 070619Z 01017KT 10/07 A3021 RMK A01 T01000072  RH  082%=      5-min Rain = 0
KPG1 070620Z 01016KT 10/07 A3021 RMK A01 T01010072  RH  082%=      5-min Rain = 0
KPG1 070621Z 01013KT 10/07 A3021 RMK A01 T01000072  RH  082%=      5-min Rain = 0
KPG1 070622Z 01017KT 10/07 A3021 RMK A01 T01000072  RH  082%=      5-min Rain = 0
KPG1 070623Z 01017KT 10/07 A3021 RMK A01 T01000072  RH  082%=      5-min Rain = 0
KPG1 070624Z 01015KT 10/07 A3021 RMK A01 T01000072  RH  082%=      5-min Rain = 0
KPG1 070625Z 01016KT 10/07 A3021 RMK A01 T01010072  RH  082%=      5-min Rain = 0
KPG1 070626Z 01016KT 10/07 A3021 RMK A01 T01010072  RH  082%=      5-min Rain = 0
KPG1 070627Z 01017KT 10/07 A3021 RMK A01 T01010072  RH  082%=      5-min Rain = 0
KPG1 070628Z 01017KT 10/07 A3021 RMK A01 T01010072  RH  082%=      5-min Rain = 0
KPG1 070629Z 01016KT 10/07 A3021 RMK A01 T01010072  RH  082%=      5-min Rain = 0
KPG1 070630Z 01015KT 10/07 A3021 RMK A01 T01020072  RH  082%=      5-min Rain = 0
KPG1 070631Z 01014KT 10/07 A3021 RMK A01 T01020072  RH  082%=      5-min Rain = 0
KPG1 070632Z 01013KT 10/07 A3021 RMK A01 T01020072  RH  082%=      5-min Rain = 0
KPG1 070633Z 00014KT 10/07 A3021 RMK A01 T01020072  RH  081%=      5-min Rain = 0
KPG1 070634Z 00015KT 10/07 A3021 RMK A01 T01030072  RH  081%=      5-min Rain = 0
KPG1 070635Z 00016KT 10/07 A3021 RMK A01 T01030072  RH  081%=      5-min Rain = 0
KPG1 070636Z 36015KT 10/07 A3021 RMK A01 T01030072  RH  081%=      5-min Rain = 0
KPG1 070637Z 36016KT 10/07 A3021 RMK A01 T01030072  RH  081%=      5-min Rain = 0
KPG1 070638Z 36017KT 10/07 A3021 RMK A01 T01040072  RH  080%=      5-min Rain = 0
KPG1 070639Z 36016KT 11/07 A302 RMK A01 T01050072  RH  080%=      5-min Rain = 0
KPG1 070640Z 00015KT 11/07 A302 RMK A01 T01050071  RH  080%=      5-min Rain = 0
KPG1 070641Z 35018KT 11/07 A302 RMK A01 T01050071  RH  079%=      5-min Rain = 0
KPG1 070642Z 35016KT 11/07 A302 RMK A01 T01060071  RH  079%=      5-min Rain = 0
KPG1 070643Z 35018KT 11/07 A302 RMK A01 T01060071  RH  079%=      5-min Rain = 0
KPG1 070644Z 35018KT 11/07 A3021 RMK A01 T01060071  RH  079%=      5-min Rain = 0
KPG1 070645Z 35017KT 11/07 A3021 RMK A01 T01070071  RH  079%=      5-min Rain = 0
KPG1 070646Z 35018KT 11/07 A3021 RMK A01 T01070071  RH  078%=      5-min Rain = 0
KPG1 070647Z 36016KT 11/07 A3021 RMK A01 T01080071  RH  078%=      5-min Rain = 0
KPG1 070648Z 35017KT 11/07 A3021 RMK A01 T01080071  RH  078%=      5-min Rain = 0
KPG1 070649Z 01017KT 11/07 A302 RMK A01 T01080071  RH  078%=      5-min Rain = 0
KPG1 070650Z 00014KT 11/07 A302 RMK A01 T01080071  RH  078%=      5-min Rain = 0
KPG1 070651Z 36016KT 11/07 A302 RMK A01 T01080071  RH  078%=      5-min Rain = 0
KPG1 070652Z 00016KT 11/07 A302 RMK A01 T01080071  RH  078%=      5-min Rain = 0
KPG1 070653Z 00017KT 11/07 A302 RMK A01 T01080071  RH  078%=      5-min Rain = 0
KPG1 070654Z 00018KT 11/07 A302 RMK A01 T01080071  RH  078%=      5-min Rain = 0
KPG1 070655Z 01017KT 11/07 A302 RMK A01 T01080071  RH  078%=      5-min Rain = 0
KPG1 070656Z 01016KT 11/07 A302 RMK A01 T01080072  RH  078%=      5-min Rain = 0
KPG1 070657Z 01017KT 11/07 A302 RMK A01 T01080072  RH  078%=      5-min Rain = 0
KPG1 070658Z 01016KT 11/07 A302 RMK A01 T01080071  RH  078%=      5-min Rain = 0
KPG1 070659Z 01015KT 11/07 A302 RMK A01 T01080071  RH  078%=      5-min Rain = 0
KPG1 070700Z 01013KT 11/07 A302 RMK A01 T01080071  RH  078%=      5-min Rain = 0
KPG1 070701Z 01015KT 11/07 A302 RMK A01 T01080071  RH  078%=      5-min Rain = 0
KPG1 070702Z 01016KT 11/07 A302 RMK A01 T01080071  RH  078%=      5-min Rain = 0
KPG1 070703Z 00016KT 11/07 A3021 RMK A01 T01080071  RH  078%=      5-min Rain = 0
KPG1 070704Z 01015KT 11/07 A3021 RMK A01 T01080071  RH  078%=      5-min Rain = 0
KPG1 070705Z 00015KT 11/07 A3021 RMK A01 T01080071  RH  078%=      5-min Rain = 0
KPG1 070706Z 01017KT 11/07 A3021 RMK A01 T01080071  RH  078%=      5-min Rain = 0
KPG1 070707Z 01014KT 11/07 A3021 RMK A01 T01080071  RH  078%=      5-min Rain = 0
KPG1 070708Z 01015KT 11/07 A3021 RMK A01 T01080071  RH  078%=      5-min Rain = 0
KPG1 070709Z 01016KT 11/07 A3021 RMK A01 T01080071  RH  078%=      5-min Rain = 0
KPG1 070710Z 01015KT 11/07 A3021 RMK A01 T01080071  RH  078%=      5-min Rain = 0
KPG1 070711Z 01016KT 11/07 A3021 RMK A01 T01080071  RH  078%=      5-min Rain = 0
KPG1 070712Z 01015KT 11/07 A3021 RMK A01 T01080071  RH  078%=      5-min Rain = 0
KPG1 070713Z 01015KT 11/07 A3021 RMK A01 T01080071  RH  078%=      5-min Rain = 0
KPG1 070714Z 01016KT 11/07 A3021 RMK A01 T01080071  RH  078%=      5-min Rain = 0
KPG1 070715Z 01014KT 11/07 A3021 RMK A01 T01080071  RH  078%=      5-min Rain = 0
KPG1 070716Z 01014KT 11/07 A3021 RMK A01 T01080071  RH  078%=      5-min Rain = 0
KPG1 070717Z 01015KT 11/07 A3021 RMK A01 T01080071  RH  078%=      5-min Rain = 0
KPG1 070718Z 01015KT 11/07 A3022 RMK A01 T01080071  RH  078%=      5-min Rain = 0
KPG1 070719Z 02015KT 11/07 A3022 RMK A01 T01080071  RH  078%=      5-min Rain = 0
KPG1 070720Z 02014KT 11/07 A3022 RMK A01 T01080071  RH  078%=      5-min Rain = 0
KPG1 070721Z 02015KT 11/07 A3022 RMK A01 T01080071  RH  078%=      5-min Rain = 0
KPG1 070722Z 02016KT 11/07 A3021 RMK A01 T01090071  RH  078%=      5-min Rain = 0
KPG1 070723Z 02015KT 11/07 A3022 RMK A01 T01080071  RH  078%=      5-min Rain = 0
KPG1 070724Z 02014KT 11/07 A3022 RMK A01 T01080071  RH  078%=      5-min Rain = 0
KPG1 070725Z 02015KT 11/07 A3022 RMK A01 T01080072  RH  078%=      5-min Rain = 0
KPG1 070726Z 02014KT 11/07 A3022 RMK A01 T01080073  RH  079%=      5-min Rain = 0
KPG1 070727Z 02014KT 11/07 A3022 RMK A01 T01070074  RH  080%=      5-min Rain = 0
KPG1 070728Z 01013KT 11/08 A3022 RMK A01 T01060075  RH  081%=      5-min Rain = 0
KPG1 070729Z 01014KT 11/08 A3022 RMK A01 T01060075  RH  081%=      5-min Rain = 0
KPG1 070730Z 01014KT 11/08 A3022 RMK A01 T01060075  RH  081%=      5-min Rain = 0
KPG1 070731Z 01015KT 11/08 A3022 RMK A01 T01060076  RH  082%=      5-min Rain = 0
KPG1 070732Z 00016KT 11/08 A3022 RMK A01 T01050077  RH  083%=      5-min Rain = 0
KPG1 070733Z 00015KT 11/08 A3022 RMK A01 T01050077  RH  083%=      5-min Rain = 0
KPG1 070734Z 01015KT 10/08 A3022 RMK A01 T01040077  RH  083%=      5-min Rain = 0
KPG1 070735Z 01014KT 10/08 A3022 RMK A01 T01040078  RH  084%=      5-min Rain = 0
KPG1 070736Z 01014G19KT 10/08 A3022 RMK A01 T01040077  RH  084%=      5-min Rain = 0
KPG1 070737Z 00015KT 10/08 A3022 RMK A01 T01030078  RH  084%=      5-min Rain = 0
KPG1 070738Z 00013KT 10/08 A3022 RMK A01 T01030079  RH  085%=      5-min Rain = 0
KPG1 070739Z 35014KT 10/08 A3022 RMK A01 T01020080  RH  086%=      5-min Rain = 0
KPG1 070740Z 35013KT 10/08 A3022 RMK A01 T01020081  RH  087%=      5-min Rain = 0
KPG1 070741Z 35015KT 10/08 A3022 RMK A01 T01020081  RH  087%=      5-min Rain = 0
KPG1 070742Z 35015KT 10/08 A3022 RMK A01 T01020082  RH  087%=      5-min Rain = 0
KPG1 070743Z 35016KT 10/08 A3022 RMK A01 T01020081  RH  087%=      5-min Rain = 0
KPG1 070744Z 00013KT 10/08 A3022 RMK A01 T01020081  RH  087%=      5-min Rain = 0
KPG1 070745Z 01011KT 10/08 A3023 RMK A01 T01020081  RH  087%=      5-min Rain = 0
KPG1 070746Z 36013KT 10/08 A3023 RMK A01 T01020082  RH  087%=      5-min Rain = 0.01
KPG1 070747Z 36013KT 10/08 A3023 RMK A01 T01020083  RH  088%=      5-min Rain = 0
KPG1 070748Z 35014KT 10/08 A3023 RMK A01 T01020083  RH  088%=      5-min Rain = 0
KPG1 070749Z 36015KT 10/08 A3023 RMK A01 T01010083  RH  088%=      5-min Rain = 0
KPG1 070750Z 36014KT 10/08 A3023 RMK A01 T01020083  RH  088%=      5-min Rain = 0
KPG1 070751Z 35012KT 10/08 A3023 RMK A01 T01020083  RH  088%=      5-min Rain = 0.01
KPG1 070752Z 35014KT 10/08 A3023 RMK A01 T01020084  RH  089%=      5-min Rain = 0
KPG1 070753Z 36016KT 10/08 A3023 RMK A01 T01010084  RH  089%=      5-min Rain = 0.01
KPG1 070754Z 36013KT 10/08 A3023 RMK A01 T01010084  RH  089%=      5-min Rain = 0
KPG1 070755Z 36013KT 10/08 A3023 RMK A01 T01010084  RH  089%=      5-min Rain = 0
KPG1 070756Z 36013KT 10/09 A3024 RMK A01 T01010085  RH  089%=      5-min Rain = 0
KPG1 070757Z 36012KT 10/09 A3024 RMK A01 T01010085  RH  090%=      5-min Rain = 0
KPG1 070758Z 36011KT 10/09 A3024 RMK A01 T01010085  RH  090%=      5-min Rain = 0.01
KPG1 070759Z 00012KT 10/09 A3024 RMK A01 T01010086  RH  090%=      5-min Rain = 0
KPG1 070800Z 00012KT 10/09 A3024 RMK A01 T01010085  RH  090%=      5-min Rain = 0
KPG1 070801Z 01010KT 10/09 A3024 RMK A01 T01010085  RH  090%=      5-min Rain = 0
KPG1 070802Z 01011KT 10/09 A3024 RMK A01 T01010086  RH  090%=      5-min Rain = 0
KPG1 070803Z 00011KT 10/09 A3024 RMK A01 T01010085  RH  090%=      5-min Rain = 0.01
KPG1 070804Z 35011KT 10/09 A3024 RMK A01 T01010085  RH  090%=      5-min Rain = 0
KPG1 070805Z 35010KT 10/09 A3024 RMK A01 T01010085  RH  090%=      5-min Rain = 0
KPG1 070806Z 36010KT 10/09 A3024 RMK A01 T01010086  RH  090%=      5-min Rain = 0
KPG1 070807Z 36010KT 10/09 A3024 RMK A01 T01010086  RH  091%=      5-min Rain = 0
KPG1 070808Z 00009KT 10/09 A3024 RMK A01 T01010086  RH  091%=      5-min Rain = 0
KPG1 070809Z 01009KT 10/09 A3024 RMK A01 T01010087  RH  091%=      5-min Rain = 0
KPG1 070810Z 02010KT 10/09 A3024 RMK A01 T01000086  RH  091%=      5-min Rain = 0
KPG1 070811Z 01009KT 10/09 A3024 RMK A01 T01010086  RH  091%=      5-min Rain = 0.01
KPG1 070812Z 01008KT 10/09 A3024 RMK A01 T01000086  RH  091%=      5-min Rain = 0
KPG1 070813Z 01009KT 10/09 A3024 RMK A01 T01000086  RH  091%=      5-min Rain = 0
KPG1 070814Z 01009KT 10/09 A3024 RMK A01 T01000086  RH  091%=      5-min Rain = 0
KPG1 070815Z 01009KT 10/09 A3024 RMK A01 T01000087  RH  091%=      5-min Rain = 0
KPG1 070816Z 01008KT 10/09 A3024 RMK A01 T01000087  RH  091%=      5-min Rain = 0
KPG1 070817Z 01009KT 10/09 A3024 RMK A01 T01000087  RH  091%=      5-min Rain = 0
KPG1 070818Z 01010KT 10/09 A3024 RMK A01 T01000087  RH  091%=      5-min Rain = 0
KPG1 070819Z 01007KT 10/09 A3024 RMK A01 T01000086  RH  091%=      5-min Rain = 0.01
KPG1 070820Z 01007KT 10/09 A3024 RMK A01 T01000087  RH  091%=      5-min Rain = 0
KPG1 070821Z 01010KT 10/09 A3024 RMK A01 T01010087  RH  091%=      5-min Rain = 0
KPG1 070822Z 01008KT 10/09 A3024 RMK A01 T01010086  RH  091%=      5-min Rain = 0
KPG1 070823Z 00007KT 10/09 A3024 RMK A01 T01010086  RH  090%=      5-min Rain = 0
KPG1 070824Z 36008KT 10/09 A3024 RMK A01 T01010086  RH  091%=      5-min Rain = 0
KPG1 070825Z 36007KT 10/09 A3024 RMK A01 T01010087  RH  091%=      5-min Rain = 0.01
KPG1 070826Z 00009KT 10/09 A3024 RMK A01 T01010087  RH  091%=      5-min Rain = 0
KPG1 070827Z 00008KT 10/09 A3024 RMK A01 T01010087  RH  091%=      5-min Rain = 0
KPG1 070828Z 01008KT 10/09 A3024 RMK A01 T01010087  RH  091%=      5-min Rain = 0
KPG1 070829Z 02008KT 10/09 A3024 RMK A01 T01010087  RH  091%=      5-min Rain = 0
KPG1 070830Z 02008KT 10/09 A3024 RMK A01 T01010087  RH  091%=      5-min Rain = 0
KPG1 070831Z 03006KT 10/09 A3024 RMK A01 T01010087  RH  091%=      5-min Rain = 0.01
KPG1 070832Z 02007KT 10/09 A3024 RMK A01 T01010088  RH  092%=      5-min Rain = 0
KPG1 070833Z 02008KT 10/09 A3024 RMK A01 T01000088  RH  092%=      5-min Rain = 0
KPG1 070834Z 02008KT 10/09 A3023 RMK A01 T01000087  RH  092%=      5-min Rain = 0
KPG1 070835Z 01009KT 10/09 A3023 RMK A01 T01000087  RH  092%=      5-min Rain = 0
KPG1 070836Z 02008KT 10/09 A3023 RMK A01 T01000087  RH  092%=      5-min Rain = 0.01
KPG1 070837Z 02010KT 10/09 A3023 RMK A01 T01000087  RH  092%=      5-min Rain = 0
KPG1 070838Z 03009KT 10/09 A3023 RMK A01 T01000088  RH  092%=      5-min Rain = 0
KPG1 070839Z 03008KT 10/09 A3023 RMK A01 T00990088  RH  093%=      5-min Rain = 0
KPG1 070840Z 04009KT 10/09 A3022 RMK A01 T00990089  RH  094%=      5-min Rain = 0
KPG1 070841Z 04010KT 10/09 A3022 RMK A01 T00990089  RH  094%=      5-min Rain = 0
KPG1 070842Z 04010KT 10/09 A3022 RMK A01 T00980089  RH  094%=      5-min Rain = 0
KPG1 070843Z 04010KT 10/09 A3022 RMK A01 T00980089  RH  094%=      5-min Rain = 0
KPG1 070844Z 04011KT 10/09 A3022 RMK A01 T00980089  RH  094%=      5-min Rain = 0
KPG1 070845Z 04011KT 10/09 A3022 RMK A01 T00980089  RH  094%=      5-min Rain = 0
KPG1 070846Z 04011KT 10/09 A3022 RMK A01 T00980088  RH  094%=      5-min Rain = 0
KPG1 070847Z 04012KT 10/09 A3022 RMK A01 T00980088  RH  094%=      5-min Rain = 0
KPG1 070848Z 03012KT 10/09 A3022 RMK A01 T00980088  RH  094%=      5-min Rain = 0
KPG1 070849Z 04011KT 10/09 A3022 RMK A01 T00980088  RH  094%=      5-min Rain = 0.01
KPG1 070850Z 04011KT 10/09 A3022 RMK A01 T00980088  RH  094%=      5-min Rain = 0
KPG1 070851Z 03011KT 10/09 A3022 RMK A01 T00980087  RH  093%=      5-min Rain = 0
KPG1 070852Z 03011KT 10/09 A3022 RMK A01 T00980087  RH  093%=      5-min Rain = 0
KPG1 070853Z 03010KT 10/09 A3022 RMK A01 T00980087  RH  093%=      5-min Rain = 0
KPG1 070854Z 04009KT 10/09 A3022 RMK A01 T00980087  RH  093%=      5-min Rain = 0
KPG1 070855Z 03009KT 10/09 A3023 RMK A01 T00980088  RH  094%=      5-min Rain = 0
KPG1 070856Z 03010KT 10/09 A3023 RMK A01 T00980088  RH  094%=      5-min Rain = 0
KPG1 070857Z 03010KT 10/09 A3023 RMK A01 T00980089  RH  094%=      5-min Rain = 0
KPG1 070858Z 03010KT 10/09 A3023 RMK A01 T00980089  RH  094%=      5-min Rain = 0
KPG1 070859Z 03010KT 10/09 A3023 RMK A01 T00970089  RH  095%=      5-min Rain = 0
KPG1 070900Z 03009KT 10/09 A3023 RMK A01 T00970089  RH  095%=      5-min Rain = 0
KPG1 070901Z 04009KT 10/09 A3023 RMK A01 T00970090  RH  095%=      5-min Rain = 0
KPG1 070902Z 04009KT 10/09 A3023 RMK A01 T00970090  RH  095%=      5-min Rain = 0.02
KPG1 070903Z 04009KT 10/09 A3023 RMK A01 T00970090  RH  096%=      5-min Rain = 0
KPG1 070904Z 04009KT 10/09 A3023 RMK A01 T00960090  RH  096%=      5-min Rain = 0
KPG1 070905Z 04009KT 10/09 A3023 RMK A01 T00960090  RH  096%=      5-min Rain = 0
KPG1 070906Z 04008KT 10/09 A3023 RMK A01 T00960090  RH  096%=      5-min Rain = 0
KPG1 070907Z 04009KT 10/09 A3023 RMK A01 T00960090  RH  096%=      5-min Rain = 0
KPG1 070908Z 04008KT 10/09 A3023 RMK A01 T00960089  RH  095%=      5-min Rain = 0
KPG1 070909Z 04008KT 10/09 A3023 RMK A01 T00960089  RH  095%=      5-min Rain = 0
KPG1 070910Z 04008KT 10/09 A3023 RMK A01 T00960089  RH  095%=      5-min Rain = 0.01
KPG1 070911Z 04008KT 10/09 A3023 RMK A01 T00960089  RH  095%=      5-min Rain = 0
KPG1 070912Z 04009KT 10/09 A3023 RMK A01 T00960089  RH  095%=      5-min Rain = 0
KPG1 070913Z 03008KT 10/09 A3023 RMK A01 T00960089  RH  095%=      5-min Rain = 0
KPG1 070914Z 03008KT 10/09 A3023 RMK A01 T00960089  RH  095%=      5-min Rain = 0.01
KPG1 070915Z 02009KT 10/09 A3023 RMK A01 T00960089  RH  095%=      5-min Rain = 0
KPG1 070916Z 03008KT 10/09 A3023 RMK A01 T00960089  RH  095%=      5-min Rain = 0
KPG1 070917Z 03008KT 10/09 A3023 RMK A01 T00960090  RH  096%=      5-min Rain = 0
KPG1 070918Z 04008KT 10/09 A3023 RMK A01 T00960090  RH  096%=      5-min Rain = 0
KPG1 070919Z 04007KT 10/09 A3023 RMK A01 T00960089  RH  096%=      5-min Rain = 0.01
KPG1 070920Z 03007KT 10/09 A3023 RMK A01 T00960089  RH  096%=      5-min Rain = 0
KPG1 070921Z 04008KT 10/09 A3023 RMK A01 T00960089  RH  096%=      5-min Rain = 0
KPG1 070922Z 03007KT 10/09 A3023 RMK A01 T00960089  RH  096%=      5-min Rain = 0
KPG1 070923Z 03007KT 10/09 A3023 RMK A01 T00960089  RH  096%=      5-min Rain = 0
KPG1 070924Z 03006KT 10/09 A3023 RMK A01 T00960089  RH  096%=      5-min Rain = 0
KPG1 070925Z 02007KT 10/09 A3023 RMK A01 T00960089  RH  096%=      5-min Rain = 0
KPG1 070926Z 02008KT 10/09 A3023 RMK A01 T00960089  RH  096%=      5-min Rain = 0.01
KPG1 070927Z 02008KT 10/09 A3023 RMK A01 T00960090  RH  096%=      5-min Rain = 0
KPG1 070928Z 02007KT 10/09 A3023 RMK A01 T00960089  RH  096%=      5-min Rain = 0
KPG1 070929Z 01007KT 10/09 A3023 RMK A01 T00960090  RH  096%=      5-min Rain = 0
KPG1 070930Z 01007KT 10/09 A3023 RMK A01 T00960090  RH  096%=      5-min Rain = 0
KPG1 070931Z 01008KT 10/09 A3023 RMK A01 T00960090  RH  096%=      5-min Rain = 0.01
KPG1 070932Z 01008KT 10/09 A3023 RMK A01 T00960090  RH  096%=      5-min Rain = 0
KPG1 070933Z 01008KT 10/09 A3023 RMK A01 T00960090  RH  096%=      5-min Rain = 0
KPG1 070934Z 01009KT 10/09 A3023 RMK A01 T00960090  RH  096%=      5-min Rain = 0
KPG1 070935Z 02008KT 10/09 A3023 RMK A01 T00960090  RH  096%=      5-min Rain = 0
KPG1 070936Z 03008KT 10/09 A3023 RMK A01 T00960090  RH  096%=      5-min Rain = 0
KPG1 070937Z 03007KT 10/09 A3023 RMK A01 T00960090  RH  096%=      5-min Rain = 0
KPG1 070938Z 03007KT 10/09 A3023 RMK A01 T00960090  RH  096%=      5-min Rain = 0.01
KPG1 070939Z 03007KT 10/09 A3023 RMK A01 T00960090  RH  096%=      5-min Rain = 0
KPG1 070940Z 03008KT 10/09 A3023 RMK A01 T00960090  RH  096%=      5-min Rain = 0
KPG1 070941Z 03010KT 10/09 A3022 RMK A01 T00960091  RH  097%=      5-min Rain = 0
KPG1 070942Z 03009KT 10/09 A3022 RMK A01 T00950090  RH  096%=      5-min Rain = 0.01
KPG1 070943Z 03009KT 10/09 A3022 RMK A01 T00950090  RH  096%=      5-min Rain = 0
KPG1 070944Z 04008KT 10/09 A3022 RMK A01 T00960090  RH  096%=      5-min Rain = 0
KPG1 070945Z 03008KT 10/09 A3022 RMK A01 T00950090  RH  096%=      5-min Rain = 0
KPG1 070946Z 03007KT 10/09 A3022 RMK A01 T00960090  RH  097%=      5-min Rain = 0.01
KPG1 070947Z 02006KT 10/09 A3022 RMK A01 T00960091  RH  097%=      5-min Rain = 0
KPG1 070948Z 01006KT 10/09 A3022 RMK A01 T00950090  RH  097%=      5-min Rain = 0
KPG1 070949Z 01006KT 10/09 A3022 RMK A01 T00950090  RH  097%=      5-min Rain = 0
KPG1 070950Z 02007KT 10/09 A3022 RMK A01 T00950091  RH  097%=      5-min Rain = 0
KPG1 070951Z 01007KT 10/09 A3022 RMK A01 T00950091  RH  097%=      5-min Rain = 0.01
KPG1 070952Z 02006KT 10/09 A3022 RMK A01 T00950091  RH  097%=      5-min Rain = 0
KPG1 070953Z 01008KT 10/09 A3022 RMK A01 T00960091  RH  097%=      5-min Rain = 0
KPG1 070954Z 01008KT 10/09 A3022 RMK A01 T00950090  RH  097%=      5-min Rain = 0.01
KPG1 070955Z 02008KT 10/09 A3022 RMK A01 T00950090  RH  097%=      5-min Rain = 0.01
KPG1 070956Z 02008KT 10/09 A3022 RMK A01 T00960090  RH  097%=      5-min Rain = 0
KPG1 070957Z 03008KT 10/09 A3022 RMK A01 T00950090  RH  097%=      5-min Rain = 0
KPG1 070958Z 03008KT 10/09 A3022 RMK A01 T00950090  RH  097%=      5-min Rain = 0
KPG1 070959Z 03008KT 10/09 A3022 RMK A01 T00950090  RH  097%=      5-min Rain = 0
KPG1 071000Z 03008KT 10/09 A3022 RMK A01 T00950090  RH  097%=      5-min Rain = 0
KPG1 071001Z 03008KT 10/09 A3022 RMK A01 T00950091  RH  097%=      5-min Rain = 0
KPG1 071002Z 03007KT 10/09 A3022 RMK A01 T00950091  RH  097%=      5-min Rain = 0.01
KPG1 071003Z 02007KT 10/09 A3022 RMK A01 T00960091  RH  097%=      5-min Rain = 0
KPG1 071004Z 02008KT 10/09 A3022 RMK A01 T00950091  RH  097%=      5-min Rain = 0
KPG1 071005Z 02007KT 10/09 A3022 RMK A01 T00950090  RH  097%=      5-min Rain = 0
KPG1 071006Z 02007KT 10/09 A3022 RMK A01 T00950090  RH  097%=      5-min Rain = 0
KPG1 071007Z 02007KT 10/09 A3022 RMK A01 T00950090  RH  097%=      5-min Rain = 0
KPG1 071008Z 02006KT 10/09 A3022 RMK A01 T00950090  RH  097%=      5-min Rain = 0.01
KPG1 071009Z 02007KT 10/09 A3022 RMK A01 T00950091  RH  097%=      5-min Rain = 0
KPG1 071010Z 01008KT 10/09 A3022 RMK A01 T00950091  RH  097%=      5-min Rain = 0
KPG1 071011Z 01007KT 10/09 A3022 RMK A01 T00950091  RH  097%=      5-min Rain = 0
KPG1 071012Z 02007KT 10/09 A3022 RMK A01 T00950091  RH  097%=      5-min Rain = 0
KPG1 071013Z 02007KT 10/09 A3022 RMK A01 T00950090  RH  097%=      5-min Rain = 0.01
KPG1 071014Z 02007KT 10/09 A3022 RMK A01 T00950091  RH  097%=      5-min Rain = 0
KPG1 071015Z 02006KT 10/09 A3022 RMK A01 T00950091  RH  097%=      5-min Rain = 0
KPG1 071016Z 01007KT 10/09 A3022 RMK A01 T00950091  RH  097%=      5-min Rain = 0
KPG1 071017Z 01007KT 10/09 A3022 RMK A01 T00950091  RH  097%=      5-min Rain = 0
KPG1 071018Z 00008KT 10/09 A3023 RMK A01 T00950091  RH  097%=      5-min Rain = 0
KPG1 071019Z 01007KT 10/09 A3023 RMK A01 T00950091  RH  097%=      5-min Rain = 0.01
KPG1 071020Z 02006KT 10/09 A3023 RMK A01 T00950090  RH  097%=      5-min Rain = 0
KPG1 071021Z 01007KT 10/09 A3023 RMK A01 T00950090  RH  097%=      5-min Rain = 0
KPG1 071022Z 00007KT 10/09 A3023 RMK A01 T00950090  RH  097%=      5-min Rain = 0
KPG1 071023Z 00007KT 10/09 A3023 RMK A01 T00950091  RH  097%=      5-min Rain = 0
KPG1 071024Z 00007KT 10/09 A3023 RMK A01 T00960091  RH  097%=      5-min Rain = 0
KPG1 071025Z 01008KT 10/09 A3023 RMK A01 T00960091  RH  097%=      5-min Rain = 0.01
KPG1 071026Z 01007KT 10/09 A3023 RMK A01 T00950090  RH  097%=      5-min Rain = 0
KPG1 071027Z 01007KT 10/09 A3023 RMK A01 T00960090  RH  096%=      5-min Rain = 0
KPG1 071028Z 01006KT 10/09 A3023 RMK A01 T00960090  RH  096%=      5-min Rain = 0
KPG1 071029Z 02007KT 10/09 A3023 RMK A01 T00960090  RH  096%=      5-min Rain = 0
KPG1 071030Z 02007KT 10/09 A3023 RMK A01 T00960090  RH  096%=      5-min Rain = 0
KPG1 071031Z 02007KT 10/09 A3023 RMK A01 T00960090  RH  096%=      5-min Rain = 0.01
KPG1 071032Z 03007KT 10/09 A3023 RMK A01 T00960090  RH  096%=      5-min Rain = 0
KPG1 071033Z 03008KT 10/09 A3023 RMK A01 T00960090  RH  096%=      5-min Rain = 0
KPG1 071034Z 03008KT 10/09 A3023 RMK A01 T00960090  RH  096%=      5-min Rain = 0.01
KPG1 071035Z 03007KT 10/09 A3023 RMK A01 T00960090  RH  096%=      5-min Rain = 0
KPG1 071036Z 04007KT 10/09 A3023 RMK A01 T00960090  RH  096%=      5-min Rain = 0
KPG1 071037Z 04007KT 10/09 A3023 RMK A01 T00960090  RH  096%=      5-min Rain = 0.01
KPG1 071038Z 04006KT 10/09 A3023 RMK A01 T00960090  RH  096%=      5-min Rain = 0
KPG1 071039Z 04007KT 10/09 A3023 RMK A01 T00960090  RH  096%=      5-min Rain = 0
KPG1 071040Z 04007KT 10/09 A3023 RMK A01 T00960090  RH  097%=      5-min Rain = 0
KPG1 071041Z 03006KT 10/09 A3023 RMK A01 T00950090  RH  097%=      5-min Rain = 0.01
KPG1 071042Z 03007KT 10/09 A3023 RMK A01 T00950090  RH  097%=      5-min Rain = 0
KPG1 071043Z 04008KT 10/09 A3023 RMK A01 T00950091  RH  097%=      5-min Rain = 0
KPG1 071044Z 03008KT 10/09 A3023 RMK A01 T00950091  RH  097%=      5-min Rain = 0.01
KPG1 071045Z 03008KT 10/09 A3023 RMK A01 T00950090  RH  097%=      5-min Rain = 0
KPG1 071046Z 03008KT 10/09 A3022 RMK A01 T00950090  RH  097%=      5-min Rain = 0
KPG1 071047Z 04007KT 10/09 A3022 RMK A01 T00950090  RH  097%=      5-min Rain = 0
KPG1 071048Z 03008KT 10/09 A3022 RMK A01 T00950091  RH  097%=      5-min Rain = 0
KPG1 071049Z 03008KT 10/09 A3022 RMK A01 T00950091  RH  097%=      5-min Rain = 0
KPG1 071050Z 03008KT 10/09 A3022 RMK A01 T00950091  RH  097%=      5-min Rain = 0
KPG1 071051Z 03008KT 10/09 A3022 RMK A01 T00950091  RH  097%=      5-min Rain = 0.01
KPG1 071052Z 03008KT 10/09 A3022 RMK A01 T00950091  RH  097%=      5-min Rain = 0
KPG1 071053Z 03008KT 10/09 A3022 RMK A01 T00950091  RH  097%=      5-min Rain = 0
KPG1 071054Z 03008KT 10/09 A3022 RMK A01 T00950091  RH  097%=      5-min Rain = 0
KPG1 071055Z 03007KT 10/09 A3022 RMK A01 T00950092  RH  097%=      5-min Rain = 0
KPG1 071056Z 03007KT 10/09 A3022 RMK A01 T00950091  RH  098%=      5-min Rain = 0.01
KPG1 071057Z 04006KT 10/09 A3023 RMK A01 T00950091  RH  098%=      5-min Rain = 0
KPG1 071058Z 04006KT 10/09 A3023 RMK A01 T00950091  RH  098%=      5-min Rain = 0
KPG1 071059Z 04006KT 10/09 A3023 RMK A01 T00950092  RH  098%=      5-min Rain = 0
KPG1 071100Z 04007KT 10/09 A3023 RMK A01 T00950092  RH  098%=      5-min Rain = 0
KPG1 071101Z 03007KT 10/09 A3023 RMK A01 T00950092  RH  098%=      5-min Rain = 0.01
KPG1 071102Z 03007KT 10/09 A3023 RMK A01 T00950092  RH  098%=      5-min Rain = 0
KPG1 071103Z 03007KT 10/09 A3023 RMK A01 T00950092  RH  098%=      5-min Rain = 0
KPG1 071104Z 03009KT 10/09 A3023 RMK A01 T00950092  RH  098%=      5-min Rain = 0
KPG1 071105Z 03009KT 09/09 A3022 RMK A01 T00940092  RH  098%=      5-min Rain = 0
KPG1 071106Z 03009KT 10/09 A3022 RMK A01 T00950092  RH  098%=      5-min Rain = 0
KPG1 071107Z 03009KT 09/09 A3022 RMK A01 T00940091  RH  098%=      5-min Rain = 0.01
KPG1 071108Z 03009KT 09/09 A3022 RMK A01 T00940091  RH  098%=      5-min Rain = 0
KPG1 071109Z 03009KT 09/09 A3022 RMK A01 T00940091  RH  098%=      5-min Rain = 0
KPG1 071110Z 03009KT 09/09 A3022 RMK A01 T00940091  RH  098%=      5-min Rain = 0
KPG1 071111Z 03009KT 09/09 A3022 RMK A01 T00940091  RH  098%=      5-min Rain = 0
KPG1 071112Z 03009KT 09/09 A3022 RMK A01 T00940091  RH  098%=      5-min Rain = 0.01
KPG1 071113Z 03009KT 09/09 A3022 RMK A01 T00940091  RH  098%=      5-min Rain = 0
KPG1 071114Z 03009KT 09/09 A3022 RMK A01 T00940091  RH  098%=      5-min Rain = 0
KPG1 071115Z 03009KT 09/09 A3022 RMK A01 T00940091  RH  098%=      5-min Rain = 0
KPG1 071116Z 02009KT 09/09 A3022 RMK A01 T00940091  RH  098%=      5-min Rain = 0
KPG1 071117Z 03010KT 09/09 A3022 RMK A01 T00940091  RH  098%=      5-min Rain = 0.01
KPG1 071118Z 03009KT 09/09 A3022 RMK A01 T00940091  RH  098%=      5-min Rain = 0
KPG1 071119Z 02008KT 09/09 A3022 RMK A01 T00940091  RH  098%=      5-min Rain = 0
KPG1 071120Z 02009KT 09/09 A3022 RMK A01 T00940091  RH  098%=      5-min Rain = 0
KPG1 071121Z 02009KT 09/09 A3022 RMK A01 T00940091  RH  098%=      5-min Rain = 0
KPG1 071122Z 02008KT 09/09 A3022 RMK A01 T00940091  RH  098%=      5-min Rain = 0
KPG1 071123Z 02008KT 09/09 A3022 RMK A01 T00940091  RH  098%=      5-min Rain = 0
KPG1 071124Z 02009KT 09/09 A3022 RMK A01 T00940091  RH  098%=      5-min Rain = 0.01
KPG1 071125Z 02009KT 09/09 A3022 RMK A01 T00940091  RH  098%=      5-min Rain = 0
KPG1 071126Z 02009KT 09/09 A3022 RMK A01 T00940091  RH  098%=      5-min Rain = 0
KPG1 071127Z 02009KT 09/09 A3022 RMK A01 T00940091  RH  098%=      5-min Rain = 0
KPG1 071128Z 02009KT 09/09 A3022 RMK A01 T00940091  RH  098%=      5-min Rain = 0
KPG1 071129Z 02008KT 09/09 A3022 RMK A01 T00940091  RH  098%=      5-min Rain = 0.01
KPG1 071130Z 02007KT 09/09 A3022 RMK A01 T00940091  RH  098%=      5-min Rain = 0
KPG1 071131Z 03008KT 09/09 A3022 RMK A01 T00940092  RH  098%=      5-min Rain = 0
KPG1 071132Z 03009KT 09/09 A3022 RMK A01 T00940092  RH  098%=      5-min Rain = 0
KPG1 071133Z 03009KT 09/09 A3022 RMK A01 T00940092  RH  098%=      5-min Rain = 0
KPG1 071134Z 03008KT 09/09 A3022 RMK A01 T00940092  RH  098%=      5-min Rain = 0
KPG1 071135Z 03008KT 09/09 A3022 RMK A01 T00940092  RH  099%=      5-min Rain = 0
KPG1 071136Z 03008KT 09/09 A3022 RMK A01 T00940092  RH  099%=      5-min Rain = 0
KPG1 071137Z 03009KT 09/09 A3022 RMK A01 T00940092  RH  099%=      5-min Rain = 0
KPG1 071138Z 02010KT 09/09 A3022 RMK A01 T00940092  RH  099%=      5-min Rain = 0.01
KPG1 071139Z 02010KT 09/09 A3022 RMK A01 T00940092  RH  099%=      5-min Rain = 0
KPG1 071140Z 03010KT 09/09 A3022 RMK A01 T00940092  RH  099%=      5-min Rain = 0
KPG1 071141Z 03008KT 09/09 A3022 RMK A01 T00940092  RH  099%=      5-min Rain = 0
KPG1 071142Z 02008KT 09/09 A3022 RMK A01 T00940092  RH  099%=      5-min Rain = 0.01
KPG1 071143Z 02007KT 09/09 A3022 RMK A01 T00940092  RH  099%=      5-min Rain = 0
KPG1 071144Z 02008KT 09/09 A3022 RMK A01 T00940092  RH  099%=      5-min Rain = 0
KPG1 071145Z 02008KT 09/09 A3022 RMK A01 T00940092  RH  099%=      5-min Rain = 0
KPG1 071146Z 02009KT 09/09 A3022 RMK A01 T00940092  RH  099%=      5-min Rain = 0.01
KPG1 071147Z 02010KT 09/09 A3022 RMK A01 T00940092  RH  099%=      5-min Rain = 0
KPG1 071148Z 02010KT 09/09 A3022 RMK A01 T00940092  RH  099%=      5-min Rain = 0
KPG1 071149Z 02009KT 09/09 A3022 RMK A01 T00940092  RH  099%=      5-min Rain = 0
KPG1 071150Z 02007KT 09/09 A3022 RMK A01 T00940092  RH  099%=      5-min Rain = 0.01
KPG1 071151Z 03008KT 09/09 A3022 RMK A01 T00940092  RH  099%=      5-min Rain = 0
KPG1 071152Z 03007KT 09/09 A3023 RMK A01 T00940092  RH  099%=      5-min Rain = 0
KPG1 071153Z 02007KT 09/09 A3023 RMK A01 T00940092  RH  099%=      5-min Rain = 0
KPG1 071154Z 02007KT 09/09 A3023 RMK A01 T00940092  RH  099%=      5-min Rain = 0.01
KPG1 071155Z 02007KT 09/09 A3023 RMK A01 T00940092  RH  099%=      5-min Rain = 0
KPG1 071156Z 01008KT 09/09 A3023 RMK A01 T00940092  RH  099%=      5-min Rain = 0
KPG1 071157Z 02009KT 10/09 A3023 RMK A01 T00950093  RH  099%=      5-min Rain = 0.01
KPG1 071158Z 01009KT 09/09 A3023 RMK A01 T00940092  RH  099%=      5-min Rain = 0
KPG1 071159Z 02009KT 09/09 A3023 RMK A01 T00940092  RH  099%=      5-min Rain = 0
KPG1 071200Z 01009KT 10/09 A3023 RMK A01 T00950093  RH  099%=      5-min Rain = 0
KPG1 071201Z 02007KT 09/09 A3023 RMK A01 T00940092  RH  099%=      5-min Rain = 0
KPG1 071202Z 02007KT 10/09 A3023 RMK A01 T00950092  RH  099%=      5-min Rain = 0.01
KPG1 071203Z 02007KT 09/09 A3023 RMK A01 T00940092  RH  099%=      5-min Rain = 0
KPG1 071204Z 02006KT 10/09 A3023 RMK A01 T00950092  RH  098%=      5-min Rain = 0
KPG1 071205Z 04007KT 10/09 A3023 RMK A01 T00950092  RH  099%=      5-min Rain = 0
KPG1 071206Z 04007KT 10/09 A3023 RMK A01 T00950093  RH  099%=      5-min Rain = 0
KPG1 071207Z 04007KT 10/09 A3023 RMK A01 T00950093  RH  098%=      5-min Rain = 0
KPG1 071208Z 03009KT 10/09 A3023 RMK A01 T00950093  RH  099%=      5-min Rain = 0.01
KPG1 071209Z 03008KT 10/09 A3023 RMK A01 T00950093  RH  098%=      5-min Rain = 0
KPG1 071210Z 04008KT 10/09 A3023 RMK A01 T00950093  RH  098%=      5-min Rain = 0
KPG1 071211Z 04007KT 10/09 A3023 RMK A01 T00950093  RH  098%=      5-min Rain = 0
KPG1 071212Z 04006KT 10/09 A3024 RMK A01 T00950093  RH  098%=      5-min Rain = 0.01
KPG1 071213Z 04007KT 10/09 A3024 RMK A01 T00950093  RH  098%=      5-min Rain = 0
KPG1 071214Z 04007KT 10/09 A3024 RMK A01 T00950093  RH  099%=      5-min Rain = 0
KPG1 071215Z 04007KT 10/09 A3024 RMK A01 T00950092  RH  099%=      5-min Rain = 0
KPG1 071216Z 04006KT 09/09 A3024 RMK A01 T00940092  RH  098%=      5-min Rain = 0.01
KPG1 071217Z 04006KT 09/09 A3024 RMK A01 T00940092  RH  098%=      5-min Rain = 0
KPG1 071218Z 04007KT 09/09 A3024 RMK A01 T00940092  RH  098%=      5-min Rain = 0
KPG1 071219Z 04008KT 10/09 A3024 RMK A01 T00950092  RH  099%=      5-min Rain = 0
KPG1 071220Z 04007KT 10/09 A3024 RMK A01 T00950092  RH  098%=      5-min Rain = 0.01
KPG1 071221Z 04006KT 10/09 A3024 RMK A01 T00950092  RH  098%=      5-min Rain = 0
KPG1 071222Z 04006KT 09/09 A3024 RMK A01 T00940092  RH  098%=      5-min Rain = 0
KPG1 071223Z 05006KT 10/09 A3024 RMK A01 T00950092  RH  098%=      5-min Rain = 0
KPG1 071224Z 03006KT 09/09 A3024 RMK A01 T00940092  RH  098%=      5-min Rain = 0.01
KPG1 071225Z 03006KT 09/09 A3024 RMK A01 T00940092  RH  098%=      5-min Rain = 0
KPG1 071226Z 03006KT 09/09 A3024 RMK A01 T00940092  RH  098%=      5-min Rain = 0
KPG1 071227Z 03007KT 09/09 A3024 RMK A01 T00940092  RH  098%=      5-min Rain = 0
KPG1 071228Z 03007KT 10/09 A3024 RMK A01 T00950092  RH  098%=      5-min Rain = 0
KPG1 071229Z 03007KT 10/09 A3024 RMK A01 T00950092  RH  098%=      5-min Rain = 0
KPG1 071230Z 03007KT 10/09 A3024 RMK A01 T00950092  RH  098%=      5-min Rain = 0.01
KPG1 071231Z 02007KT 10/09 A3024 RMK A01 T00950092  RH  098%=      5-min Rain = 0
KPG1 071232Z 03007KT 10/09 A3024 RMK A01 T00950092  RH  098%=      5-min Rain = 0
KPG1 071233Z 03009KT 09/09 A3024 RMK A01 T00940092  RH  098%=      5-min Rain = 0.01
KPG1 071234Z 03008KT 10/09 A3024 RMK A01 T00950092  RH  098%=      5-min Rain = 0
KPG1 071235Z 03009KT 09/09 A3024 RMK A01 T00940092  RH  098%=      5-min Rain = 0
KPG1 071236Z 03008KT 10/09 A3024 RMK A01 T00950092  RH  098%=      5-min Rain = 0
KPG1 071237Z 03008KT 10/09 A3024 RMK A01 T00950092  RH  098%=      5-min Rain = 0
KPG1 071238Z 03008KT 10/09 A3024 RMK A01 T00950092  RH  098%=      5-min Rain = 0
KPG1 071239Z 03008KT 09/09 A3024 RMK A01 T00940092  RH  098%=      5-min Rain = 0
KPG1 071240Z 02008KT 10/09 A3024 RMK A01 T00950092  RH  098%=      5-min Rain = 0
KPG1 071241Z 02009KT 10/09 A3024 RMK A01 T00950092  RH  098%=      5-min Rain = 0
KPG1 071242Z 02009KT 09/09 A3023 RMK A01 T00940092  RH  098%=      5-min Rain = 0.01
KPG1 071243Z 02008KT 09/09 A3023 RMK A01 T00940092  RH  098%=      5-min Rain = 0.01
KPG1 071244Z 01009KT 09/09 A3023 RMK A01 T00940092  RH  098%=      5-min Rain = 0
KPG1 071245Z 01009KT 10/09 A3023 RMK A01 T00950092  RH  099%=      5-min Rain = 0
KPG1 071246Z 02009KT 09/09 A3023 RMK A01 T00940092  RH  098%=      5-min Rain = 0
KPG1 071247Z 01010KT 10/09 A3023 RMK A01 T00950092  RH  098%=      5-min Rain = 0
KPG1 071248Z 01009KT 10/09 A3023 RMK A01 T00950092  RH  099%=      5-min Rain = 0
KPG1 071249Z 02008KT 09/09 A3023 RMK A01 T00940092  RH  099%=      5-min Rain = 0
KPG1 071250Z 02009KT 10/09 A3023 RMK A01 T00950092  RH  099%=      5-min Rain = 0
KPG1 071251Z 02010KT 09/09 A3023 RMK A01 T00940092  RH  099%=      5-min Rain = 0
KPG1 071252Z 02009KT 09/09 A3023 RMK A01 T00940092  RH  099%=      5-min Rain = 0
KPG1 071253Z 02009KT 09/09 A3023 RMK A01 T00940092  RH  099%=      5-min Rain = 0
KPG1 071254Z 02009KT 09/09 A3023 RMK A01 T00940092  RH  099%=      5-min Rain = 0
KPG1 071255Z 02008KT 09/09 A3023 RMK A01 T00940092  RH  099%=      5-min Rain = 0
KPG1 071256Z 01011KT 10/09 A3023 RMK A01 T00950093  RH  099%=      5-min Rain = 0
KPG1 071257Z 02010KT 09/09 A3023 RMK A01 T00940092  RH  099%=      5-min Rain = 0
KPG1 071258Z 02010KT 10/09 A3023 RMK A01 T00950092  RH  099%=      5-min Rain = 0
KPG1 071259Z 02010KT 10/09 A3023 RMK A01 T00950093  RH  099%=      5-min Rain = 0
KPG1 071300Z 02009KT 10/09 A3023 RMK A01 T00950093  RH  099%=      5-min Rain = 0
KPG1 071301Z 02010KT 10/09 A3023 RMK A01 T00950093  RH  099%=      5-min Rain = 0
KPG1 071302Z 02009KT 10/09 A3023 RMK A01 T00950093  RH  098%=      5-min Rain = 0
KPG1 071303Z 02011KT 10/09 A3023 RMK A01 T00950093  RH  098%=      5-min Rain = 0
KPG1 071304Z 02011KT 10/09 A3023 RMK A01 T00950092  RH  098%=      5-min Rain = 0
KPG1 071305Z 02011KT 10/09 A3023 RMK A01 T00950092  RH  098%=      5-min Rain = 0
KPG1 071306Z 02010KT 10/09 A3023 RMK A01 T00950093  RH  098%=      5-min Rain = 0.01
KPG1 071307Z 02010KT 10/09 A3023 RMK A01 T00960093  RH  098%=      5-min Rain = 0
KPG1 071308Z 02009KT 10/09 A3023 RMK A01 T00950093  RH  098%=      5-min Rain = 0
KPG1 071309Z 02009KT 10/09 A3023 RMK A01 T00960093  RH  098%=      5-min Rain = 0
KPG1 071310Z 02010KT 10/09 A3023 RMK A01 T00960093  RH  098%=      5-min Rain = 0
KPG1 071311Z 02009KT 10/09 A3023 RMK A01 T00960093  RH  098%=      5-min Rain = 0
KPG1 071312Z 01008KT 10/09 A3023 RMK A01 T00960093  RH  098%=      5-min Rain = 0
KPG1 071313Z 02009KT 10/09 A3023 RMK A01 T00960093  RH  098%=      5-min Rain = 0
KPG1 071314Z 01009KT 10/09 A3023 RMK A01 T00960093  RH  098%=      5-min Rain = 0
KPG1 071315Z 02010KT 10/09 A3023 RMK A01 T00960093  RH  098%=      5-min Rain = 0
KPG1 071316Z 01010KT 10/09 A3023 RMK A01 T00960093  RH  098%=      5-min Rain = 0
KPG1 071317Z 01008KT 10/09 A3023 RMK A01 T00960092  RH  098%=      5-min Rain = 0
KPG1 071318Z 00009KT 10/09 A3023 RMK A01 T00960092  RH  098%=      5-min Rain = 0
KPG1 071319Z 01008KT 10/09 A3023 RMK A01 T00960092  RH  097%=      5-min Rain = 0.01
KPG1 071320Z 01008KT 10/09 A3023 RMK A01 T00960092  RH  097%=      5-min Rain = 0
KPG1 071321Z 00009KT 10/09 A3023 RMK A01 T00960092  RH  097%=      5-min Rain = 0
KPG1 071322Z 01009KT 10/09 A3023 RMK A01 T00960092  RH  097%=      5-min Rain = 0
KPG1 071323Z 01007KT 10/09 A3023 RMK A01 T00960092  RH  097%=      5-min Rain = 0
KPG1 071324Z 01007KT 10/09 A3023 RMK A01 T00960092  RH  097%=      5-min Rain = 0
KPG1 071325Z 00008KT 10/09 A3023 RMK A01 T00960092  RH  097%=      5-min Rain = 0
KPG1 071326Z 01009KT 10/09 A3023 RMK A01 T00960092  RH  097%=      5-min Rain = 0
KPG1 071327Z 00008KT 10/09 A3024 RMK A01 T00960091  RH  097%=      5-min Rain = 0
KPG1 071328Z 36008KT 10/09 A3024 RMK A01 T00960091  RH  097%=      5-min Rain = 0
KPG1 071329Z 00008KT 10/09 A3024 RMK A01 T00970092  RH  096%=      5-min Rain = 0.01
KPG1 071330Z 01008KT 10/09 A3024 RMK A01 T00970091  RH  096%=      5-min Rain = 0
KPG1 071331Z 01008KT 10/09 A3024 RMK A01 T00970091  RH  096%=      5-min Rain = 0
KPG1 071332Z 01008KT 10/09 A3024 RMK A01 T00970091  RH  096%=      5-min Rain = 0
KPG1 071333Z 01008KT 10/09 A3024 RMK A01 T00970091  RH  096%=      5-min Rain = 0
KPG1 071334Z 01007KT 10/09 A3024 RMK A01 T00970091  RH  096%=      5-min Rain = 0
KPG1 071335Z 01007KT 10/09 A3024 RMK A01 T00970091  RH  096%=      5-min Rain = 0
KPG1 071336Z 00008KT 10/09 A3024 RMK A01 T00970091  RH  096%=      5-min Rain = 0
KPG1 071337Z 01008KT 10/09 A3024 RMK A01 T00970091  RH  096%=      5-min Rain = 0.01
KPG1 071338Z 01008KT 10/09 A3024 RMK A01 T00970091  RH  096%=      5-min Rain = 0
KPG1 071339Z 02007KT 10/09 A3024 RMK A01 T00980091  RH  096%=      5-min Rain = 0
KPG1 071340Z 02007KT 10/09 A3024 RMK A01 T00980091  RH  096%=      5-min Rain = 0
KPG1 071341Z 03007KT 10/09 A3024 RMK A01 T00980091  RH  096%=      5-min Rain = 0
KPG1 071342Z 03007KT 10/09 A3024 RMK A01 T00980091  RH  096%=      5-min Rain = 0
KPG1 071343Z 02006KT 10/09 A3024 RMK A01 T00980091  RH  096%=      5-min Rain = 0
KPG1 071344Z 03006KT 10/09 A3024 RMK A01 T00980091  RH  096%=      5-min Rain = 0
KPG1 071345Z 04006KT 10/09 A3024 RMK A01 T00980091  RH  096%=      5-min Rain = 0
KPG1 071346Z 04007KT 10/09 A3024 RMK A01 T00980091  RH  096%=      5-min Rain = 0.01
KPG1 071347Z 04006KT 10/09 A3024 RMK A01 T00980092  RH  096%=      5-min Rain = 0
KPG1 071348Z 05006KT 10/09 A3024 RMK A01 T00970092  RH  096%=      5-min Rain = 0
KPG1 071349Z 04007KT 10/09 A3024 RMK A01 T00980092  RH  096%=      5-min Rain = 0
KPG1 071350Z 05006KT 10/09 A3024 RMK A01 T00980092  RH  096%=      5-min Rain = 0
KPG1 071351Z 05006KT 10/09 A3024 RMK A01 T00980092  RH  097%=      5-min Rain = 0
KPG1 071352Z 05007KT 10/09 A3024 RMK A01 T00970092  RH  097%=      5-min Rain = 0
KPG1 071353Z 05006KT 10/09 A3024 RMK A01 T00970092  RH  097%=      5-min Rain = 0
KPG1 071354Z 04006KT 10/09 A3024 RMK A01 T00970093  RH  097%=      5-min Rain = 0
KPG1 071355Z 04007KT 10/09 A3024 RMK A01 T00970092  RH  097%=      5-min Rain = 0
KPG1 071356Z 04007KT 10/09 A3024 RMK A01 T00970092  RH  097%=      5-min Rain = 0
KPG1 071357Z 05007KT 10/09 A3024 RMK A01 T00970092  RH  097%=      5-min Rain = 0
KPG1 071358Z 04007KT 10/09 A3024 RMK A01 T00970092  RH  097%=      5-min Rain = 0
KPG1 071359Z 05007KT 10/09 A3024 RMK A01 T00970092  RH  097%=      5-min Rain = 0
KPG1 071400Z 05008KT 10/09 A3024 RMK A01 T00970092  RH  097%=      5-min Rain = 0.01
KPG1 071401Z 05008KT 10/09 A3024 RMK A01 T00970092  RH  097%=      5-min Rain = 0
KPG1 071402Z 05008KT 10/09 A3024 RMK A01 T00970092  RH  097%=      5-min Rain = 0
KPG1 071403Z 05008KT 10/09 A3024 RMK A01 T00970092  RH  097%=      5-min Rain = 0
KPG1 071404Z 05008KT 10/09 A3024 RMK A01 T00970092  RH  097%=      5-min Rain = 0
KPG1 071405Z 05008KT 10/09 A3024 RMK A01 T00970093  RH  097%=      5-min Rain = 0
KPG1 071406Z 04008KT 10/09 A3024 RMK A01 T00970092  RH  097%=      5-min Rain = 0.01
KPG1 071407Z 04008KT 10/09 A3024 RMK A01 T00970093  RH  097%=      5-min Rain = 0
KPG1 071408Z 04007KT 10/09 A3024 RMK A01 T00970092  RH  097%=      5-min Rain = 0
KPG1 071409Z 04007KT 10/09 A3024 RMK A01 T00970092  RH  097%=      5-min Rain = 0
KPG1 071410Z 04007KT 10/09 A3025 RMK A01 T00970093  RH  097%=      5-min Rain = 0.01
KPG1 071411Z 04006KT 10/09 A3025 RMK A01 T00970093  RH  097%=      5-min Rain = 0
KPG1 071412Z 04006KT 10/09 A3025 RMK A01 T00970093  RH  097%=      5-min Rain = 0
KPG1 071413Z 03006KT 10/09 A3025 RMK A01 T00970093  RH  097%=      5-min Rain = 0
KPG1 071414Z 03007KT 10/09 A3025 RMK A01 T00970093  RH  097%=      5-min Rain = 0.01
KPG1 071415Z 03007KT 10/09 A3025 RMK A01 T00970093  RH  097%=      5-min Rain = 0
KPG1 071416Z 03008KT 10/09 A3025 RMK A01 T00970093  RH  097%=      5-min Rain = 0.01
KPG1 071417Z 03007KT 10/09 A3025 RMK A01 T00970093  RH  098%=      5-min Rain = 0
KPG1 071418Z 03007KT 10/09 A3025 RMK A01 T00970093  RH  098%=      5-min Rain = 0
KPG1 071419Z 04007KT 10/09 A3025 RMK A01 T00970093  RH  098%=      5-min Rain = 0
KPG1 071420Z 04007KT 10/09 A3025 RMK A01 T00970093  RH  098%=      5-min Rain = 0.01
KPG1 071421Z 03008KT 10/09 A3025 RMK A01 T00960093  RH  098%=      5-min Rain = 0
KPG1 071422Z 04008KT 10/09 A3025 RMK A01 T00960093  RH  098%=      5-min Rain = 0.01
KPG1 071423Z 04008KT 10/09 A3024 RMK A01 T00960093  RH  098%=      5-min Rain = 0
KPG1 071424Z 05007KT 10/09 A3024 RMK A01 T00960093  RH  098%=      5-min Rain = 0
KPG1 071425Z 04007KT 10/09 A3024 RMK A01 T00960093  RH  098%=      5-min Rain = 0.01
KPG1 071426Z 04007KT 10/09 A3024 RMK A01 T00960093  RH  098%=      5-min Rain = 0
KPG1 071427Z 04007KT 10/09 A3024 RMK A01 T00960093  RH  098%=      5-min Rain = 0
KPG1 071428Z 04008KT 10/09 A3024 RMK A01 T00960093  RH  098%=      5-min Rain = 0
KPG1 071429Z 04008KT 10/09 A3024 RMK A01 T00960093  RH  098%=      5-min Rain = 0.01
KPG1 071430Z 04007KT 10/09 A3024 RMK A01 T00960093  RH  098%=      5-min Rain = 0
KPG1 071431Z 03008KT 10/09 A3024 RMK A01 T00960093  RH  098%=      5-min Rain = 0
KPG1 071432Z 03008KT 10/09 A3024 RMK A01 T00960093  RH  098%=      5-min Rain = 0
KPG1 071433Z 04007KT 10/09 A3024 RMK A01 T00960093  RH  098%=      5-min Rain = 0
KPG1 071434Z 03008KT 10/09 A3024 RMK A01 T00960093  RH  098%=      5-min Rain = 0
KPG1 071435Z 03006KT 10/09 A3024 RMK A01 T00960092  RH  098%=      5-min Rain = 0.01
KPG1 071436Z 02007KT 10/09 A3024 RMK A01 T00960093  RH  098%=      5-min Rain = 0
KPG1 071437Z 03008KT 10/09 A3024 RMK A01 T00960093  RH  098%=      5-min Rain = 0
KPG1 071438Z 02008KT 10/09 A3023 RMK A01 T00960093  RH  098%=      5-min Rain = 0
KPG1 071439Z 02008KT 10/09 A3023 RMK A01 T00960093  RH  098%=      5-min Rain = 0.01
KPG1 071440Z 03008KT 10/09 A3023 RMK A01 T00960093  RH  098%=      5-min Rain = 0
KPG1 071441Z 03008KT 10/09 A3023 RMK A01 T00960093  RH  098%=      5-min Rain = 0
KPG1 071442Z 03007KT 10/09 A3023 RMK A01 T00960093  RH  098%=      5-min Rain = 0
KPG1 071443Z 03007KT 10/09 A3023 RMK A01 T00960093  RH  098%=      5-min Rain = 0.01
KPG1 071444Z 04009KT 10/09 A3023 RMK A01 T00960093  RH  098%=      5-min Rain = 0
KPG1 071445Z 04009KT 10/09 A3023 RMK A01 T00960093  RH  098%=      5-min Rain = 0
KPG1 071446Z 04009KT 10/09 A3023 RMK A01 T00960093  RH  098%=      5-min Rain = 0
KPG1 071447Z 03008KT 10/09 A3023 RMK A01 T00950093  RH  098%=      5-min Rain = 0
KPG1 071448Z 04009KT 10/09 A3023 RMK A01 T00950093  RH  098%=      5-min Rain = 0.01
KPG1 071449Z 04008KT 10/09 A3023 RMK A01 T00960093  RH  098%=      5-min Rain = 0
KPG1 071450Z 04008KT 10/09 A3023 RMK A01 T00950093  RH  098%=      5-min Rain = 0
KPG1 071451Z 04007KT 10/09 A3023 RMK A01 T00950093  RH  098%=      5-min Rain = 0
KPG1 071452Z 04008KT 10/09 A3023 RMK A01 T00960093  RH  098%=      5-min Rain = 0
KPG1 071453Z 04007KT 10/09 A3023 RMK A01 T00950093  RH  098%=      5-min Rain = 0
KPG1 071454Z 03007KT 10/09 A3023 RMK A01 T00960093  RH  098%=      5-min Rain = 0
KPG1 071455Z 04007KT 10/09 A3023 RMK A01 T00950093  RH  098%=      5-min Rain = 0
KPG1 071456Z 03007KT 10/09 A3023 RMK A01 T00960093  RH  098%=      5-min Rain = 0
KPG1 071457Z 03007KT 10/09 A3023 RMK A01 T00950093  RH  098%=      5-min Rain = 0.01
KPG1 071458Z 02007KT 10/09 A3023 RMK A01 T00960093  RH  098%=      5-min Rain = 0
KPG1 071459Z 03008KT 10/09 A3023 RMK A01 T00960093  RH  098%=      5-min Rain = 0
KPG1 071500Z 03008KT 10/09 A3023 RMK A01 T00960093  RH  098%=      5-min Rain = 0
KPG1 071501Z 03007KT 10/09 A3023 RMK A01 T00960093  RH  098%=      5-min Rain = 0
KPG1 071502Z 04007KT 10/09 A3023 RMK A01 T00960094  RH  098%=      5-min Rain = 0
KPG1 071503Z 04008KT 10/09 A3023 RMK A01 T00960094  RH  099%=      5-min Rain = 0
KPG1 071504Z 04008KT 10/09 A3023 RMK A01 T00960093  RH  099%=      5-min Rain = 0
KPG1 071505Z 04008KT 10/09 A3023 RMK A01 T00960093  RH  098%=      5-min Rain = 0
KPG1 071506Z 04008KT 10/09 A3023 RMK A01 T00960094  RH  099%=      5-min Rain = 0
KPG1 071507Z 04007KT 10/09 A3023 RMK A01 T00960094  RH  099%=      5-min Rain = 0
KPG1 071508Z 04007KT 10/09 A3023 RMK A01 T00960094  RH  099%=      5-min Rain = 0
KPG1 071509Z 04008KT 10/09 A3023 RMK A01 T00960094  RH  099%=      5-min Rain = 0
KPG1 071510Z 04008KT 10/09 A3023 RMK A01 T00960094  RH  099%=      5-min Rain = 0
KPG1 071511Z 05008KT 10/09 A3023 RMK A01 T00960094  RH  099%=      5-min Rain = 0.01
KPG1 071512Z 05007KT 10/09 A3023 RMK A01 T00960094  RH  099%=      5-min Rain = 0
KPG1 071513Z 05008KT 10/09 A3023 RMK A01 T00960094  RH  099%=      5-min Rain = 0
KPG1 071514Z 05008KT 10/09 A3022 RMK A01 T00960094  RH  099%=      5-min Rain = 0
KPG1 071515Z 04008KT 10/09 A3022 RMK A01 T00960094  RH  099%=      5-min Rain = 0
KPG1 071516Z 05009KT 10/09 A3022 RMK A01 T00960094  RH  099%=      5-min Rain = 0
KPG1 071517Z 05009KT 10/09 A3022 RMK A01 T00960094  RH  099%=      5-min Rain = 0
KPG1 071518Z 05010KT 10/09 A3022 RMK A01 T00960094  RH  099%=      5-min Rain = 0
KPG1 071519Z 05008KT 10/09 A3022 RMK A01 T00950094  RH  099%=      5-min Rain = 0
KPG1 071520Z 05007KT 10/09 A3022 RMK A01 T00950093  RH  099%=      5-min Rain = 0
KPG1 071521Z 05008KT 10/09 A3022 RMK A01 T00950094  RH  099%=      5-min Rain = 0
KPG1 071522Z 05008KT 10/09 A3022 RMK A01 T00960094  RH  099%=      5-min Rain = 0
KPG1 071523Z 04008KT 10/09 A3022 RMK A01 T00960094  RH  099%=      5-min Rain = 0.01
KPG1 071524Z 04009KT 10/09 A3022 RMK A01 T00960094  RH  099%=      5-min Rain = 0
KPG1 071525Z 04009KT 10/09 A3022 RMK A01 T00960094  RH  099%=      5-min Rain = 0
KPG1 071526Z 04007KT 10/09 A3022 RMK A01 T00950093  RH  099%=      5-min Rain = 0
KPG1 071527Z 03008KT 10/09 A3022 RMK A01 T00960094  RH  099%=      5-min Rain = 0
KPG1 071528Z 03008KT 10/09 A3022 RMK A01 T00950093  RH  099%=      5-min Rain = 0
KPG1 071529Z 03008KT 10/09 A3022 RMK A01 T00950093  RH  099%=      5-min Rain = 0
KPG1 071530Z 03008KT 10/09 A3022 RMK A01 T00950093  RH  099%=      5-min Rain = 0
KPG1 071531Z 03006KT 10/09 A3022 RMK A01 T00960094  RH  099%=      5-min Rain = 0
KPG1 071532Z 04005KT 10/09 A3022 RMK A01 T00950093  RH  099%=      5-min Rain = 0
KPG1 071533Z 03005KT 10/09 A3022 RMK A01 T00950093  RH  099%=      5-min Rain = 0
KPG1 071534Z 01006KT 10/09 A3022 RMK A01 T00950093  RH  099%=      5-min Rain = 0
KPG1 071535Z 02007KT 10/09 A3022 RMK A01 T00960093  RH  099%=      5-min Rain = 0
KPG1 071536Z 02006KT 10/09 A3022 RMK A01 T00960093  RH  098%=      5-min Rain = 0
KPG1 071537Z 03005KT 10/09 A3022 RMK A01 T00950093  RH  098%=      5-min Rain = 0
KPG1 071538Z 04006KT 10/09 A3022 RMK A01 T00960094  RH  099%=      5-min Rain = 0
KPG1 071539Z 04005KT 10/09 A3022 RMK A01 T00960093  RH  099%=      5-min Rain = 0
KPG1 071540Z 03005KT 10/09 A3022 RMK A01 T00960094  RH  099%=      5-min Rain = 0
KPG1 071541Z 04006KT 10/09 A3022 RMK A01 T00960094  RH  099%=      5-min Rain = 0
KPG1 071542Z 03004KT 10/09 A3023 RMK A01 T00960094  RH  098%=      5-min Rain = 0.01
KPG1 071543Z 01007KT 10/09 A3023 RMK A01 T00950093  RH  098%=      5-min Rain = 0
KPG1 071544Z 01005KT 10/09 A3023 RMK A01 T00950093  RH  098%=      5-min Rain = 0
KPG1 071545Z 02007KT 10/09 A3023 RMK A01 T00960093  RH  098%=      5-min Rain = 0
KPG1 071546Z 01005KT 10/09 A3023 RMK A01 T00960093  RH  098%=      5-min Rain = 0
KPG1 071547Z 00005KT 10/09 A3023 RMK A01 T00960093  RH  098%=      5-min Rain = 0
KPG1 071548Z 02004KT 10/09 A3023 RMK A01 T00960093  RH  098%=      5-min Rain = 0
KPG1 071549Z 03002KT 10/09 A3023 RMK A01 T00960094  RH  098%=      5-min Rain = 0
KPG1 071550Z 01004KT 10/09 A3023 RMK A01 T00960094  RH  098%=      5-min Rain = 0
KPG1 071551Z 01005KT 10/09 A3023 RMK A01 T00960094  RH  098%=      5-min Rain = 0
KPG1 071552Z 35004KT 10/09 A3023 RMK A01 T00960094  RH  098%=      5-min Rain = 0
KPG1 071553Z 02005KT 10/09 A3023 RMK A01 T00970094  RH  098%=      5-min Rain = 0
KPG1 071554Z 02006KT 10/09 A3023 RMK A01 T00970094  RH  098%=      5-min Rain = 0
KPG1 071555Z 03005KT 10/09 A3023 RMK A01 T00970094  RH  098%=      5-min Rain = 0
KPG1 071556Z 01003KT 10/09 A3023 RMK A01 T00970094  RH  098%=      5-min Rain = 0
KPG1 071557Z 02003KT 10/09 A3023 RMK A01 T00970093  RH  098%=      5-min Rain = 0
KPG1 071558Z 00003KT 10/09 A3023 RMK A01 T00970093  RH  098%=      5-min Rain = 0
KPG1 071559Z 01003KT 10/09 A3023 RMK A01 T00970093  RH  098%=      5-min Rain = 0
KPG1 071600Z 03004KT 10/09 A3023 RMK A01 T00970094  RH  098%=      5-min Rain = 0
KPG1 071601Z 03004KT 10/10 A3023 RMK A01 T00980095  RH  098%=      5-min Rain = 0.01
KPG1 071602Z 03004KT 10/09 A3023 RMK A01 T00980094  RH  098%=      5-min Rain = 0
KPG1 071603Z 02005KT 10/09 A3023 RMK A01 T00980094  RH  098%=      5-min Rain = 0
KPG1 071604Z 03005KT 10/10 A3023 RMK A01 T00980095  RH  098%=      5-min Rain = 0
KPG1 071605Z 04006KT 10/09 A3023 RMK A01 T00980094  RH  098%=      5-min Rain = 0
KPG1 071606Z 05006KT 10/09 A3023 RMK A01 T00970094  RH  098%=      5-min Rain = 0
KPG1 071607Z 05006KT 10/09 A3023 RMK A01 T00970094  RH  098%=      5-min Rain = 0
KPG1 071608Z 04006KT 10/09 A3023 RMK A01 T00970094  RH  098%=      5-min Rain = 0
KPG1 071609Z 04007KT 10/09 A3023 RMK A01 T00970094  RH  098%=      5-min Rain = 0.01
KPG1 071610Z 03006KT 10/09 A3023 RMK A01 T00970094  RH  098%=      5-min Rain = 0
KPG1 071611Z 03006KT 10/09 A3022 RMK A01 T00970094  RH  098%=      5-min Rain = 0
KPG1 071612Z 03007KT 10/09 A3022 RMK A01 T00970094  RH  098%=      5-min Rain = 0
KPG1 071613Z 03007KT 10/10 A3022 RMK A01 T00980095  RH  098%=      5-min Rain = 0
KPG1 071614Z 04008KT 10/10 A3022 RMK A01 T00980095  RH  098%=      5-min Rain = 0
KPG1 071615Z 03008KT 10/09 A3022 RMK A01 T00970094  RH  098%=      5-min Rain = 0
KPG1 071616Z 04008KT 10/09 A3022 RMK A01 T00970094  RH  098%=      5-min Rain = 0
KPG1 071617Z 04006KT 10/09 A3022 RMK A01 T00970094  RH  098%=      5-min Rain = 0
KPG1 071618Z 02006KT 10/09 A3022 RMK A01 T00970094  RH  098%=      5-min Rain = 0
KPG1 071619Z 03007KT 10/09 A3023 RMK A01 T00980094  RH  098%=      5-min Rain = 0
KPG1 071620Z 01007KT 10/10 A3023 RMK A01 T00980095  RH  098%=      5-min Rain = 0
KPG1 071621Z 02008KT 10/10 A3023 RMK A01 T00980095  RH  098%=      5-min Rain = 0
KPG1 071622Z 03008KT 10/10 A3023 RMK A01 T00980095  RH  098%=      5-min Rain = 0
KPG1 071623Z 02007KT 10/10 A3023 RMK A01 T00980095  RH  098%=      5-min Rain = 0.01
KPG1 071624Z 01008KT 10/10 A3023 RMK A01 T00980095  RH  098%=      5-min Rain = 0
KPG1 071625Z 02008KT 10/10 A3023 RMK A01 T00980095  RH  098%=      5-min Rain = 0
KPG1 071626Z 02008KT 10/10 A3023 RMK A01 T00980095  RH  098%=      5-min Rain = 0
KPG1 071627Z 02007KT 10/10 A3023 RMK A01 T00980095  RH  098%=      5-min Rain = 0
KPG1 071628Z 02007KT 10/10 A3023 RMK A01 T00980095  RH  098%=      5-min Rain = 0.01
KPG1 071629Z 01008KT 10/10 A3023 RMK A01 T00980095  RH  098%=      5-min Rain = 0
KPG1 071630Z 02008KT 10/09 A3023 RMK A01 T00970094  RH  098%=      5-min Rain = 0
KPG1 071631Z 01007KT 10/09 A3023 RMK A01 T00970094  RH  098%=      5-min Rain = 0
KPG1 071632Z 01007KT 10/10 A3023 RMK A01 T00970095  RH  098%=      5-min Rain = 0
KPG1 071633Z 01008KT 10/10 A3024 RMK A01 T00970095  RH  098%=      5-min Rain = 0.01
KPG1 071634Z 01008KT 10/10 A3024 RMK A01 T00970095  RH  098%=      5-min Rain = 0
KPG1 071635Z 00007KT 10/10 A3024 RMK A01 T00970095  RH  098%=      5-min Rain = 0
KPG1 071636Z 00008KT 10/10 A3024 RMK A01 T00970095  RH  098%=      5-min Rain = 0
KPG1 071637Z 01008KT 10/10 A3024 RMK A01 T00970095  RH  098%=      5-min Rain = 0
KPG1 071638Z 01007KT 10/09 A3024 RMK A01 T00970094  RH  098%=      5-min Rain = 0
KPG1 071639Z 01007KT 10/09 A3024 RMK A01 T00970094  RH  098%=      5-min Rain = 0.01
KPG1 071640Z 01008KT 10/10 A3024 RMK A01 T00970095  RH  098%=      5-min Rain = 0
KPG1 071641Z 01009KT 10/09 A3024 RMK A01 T00970094  RH  098%=      5-min Rain = 0
KPG1 071642Z 01008KT 10/09 A3023 RMK A01 T00970094  RH  098%=      5-min Rain = 0
KPG1 071643Z 01008KT 10/09 A3023 RMK A01 T00970094  RH  098%=      5-min Rain = 0
KPG1 071644Z 01008KT 10/10 A3023 RMK A01 T00980095  RH  098%=      5-min Rain = 0.01
KPG1 071645Z 01007KT 10/09 A3023 RMK A01 T00970094  RH  098%=      5-min Rain = 0
KPG1 071646Z 01008KT 10/09 A3023 RMK A01 T00980094  RH  098%=      5-min Rain = 0
KPG1 071647Z 02007KT 10/09 A3023 RMK A01 T00980094  RH  098%=      5-min Rain = 0
KPG1 071648Z 01006KT 10/09 A3023 RMK A01 T00980094  RH  098%=      5-min Rain = 0.01
KPG1 071649Z 02006KT 10/09 A3023 RMK A01 T00980094  RH  098%=      5-min Rain = 0
KPG1 071650Z 01006KT 10/09 A3023 RMK A01 T00980094  RH  098%=      5-min Rain = 0
KPG1 071651Z 01006KT 10/10 A3023 RMK A01 T00980095  RH  098%=      5-min Rain = 0
KPG1 071652Z 01007KT 10/10 A3023 RMK A01 T00980095  RH  098%=      5-min Rain = 0.01
KPG1 071653Z 02007KT 10/09 A3023 RMK A01 T00980094  RH  097%=      5-min Rain = 0
KPG1 071654Z 02007KT 10/09 A3023 RMK A01 T00980094  RH  097%=      5-min Rain = 0
KPG1 071655Z 02006KT 10/09 A3023 RMK A01 T00980094  RH  097%=      5-min Rain = 0
KPG1 071656Z 02007KT 10/09 A3022 RMK A01 T00980094  RH  097%=      5-min Rain = 0
KPG1 071657Z 02007KT 10/09 A3022 RMK A01 T00980094  RH  097%=      5-min Rain = 0.01
KPG1 071658Z 03007KT 10/09 A3022 RMK A01 T00980094  RH  097%=      5-min Rain = 0
KPG1 071659Z 03007KT 10/09 A3022 RMK A01 T00980094  RH  097%=      5-min Rain = 0
KPG1 071700Z 03007KT 10/10 A3021 RMK A01 T00990095  RH  097%=      5-min Rain = 0
KPG1 071701Z 04006KT 10/10 A3021 RMK A01 T00990095  RH  098%=      5-min Rain = 0.01
KPG1 071702Z 04006KT 10/10 A3021 RMK A01 T00990095  RH  098%=      5-min Rain = 0
KPG1 071703Z 04008KT 10/10 A3021 RMK A01 T00990096  RH  098%=      5-min Rain = 0
KPG1 071704Z 03007KT 10/10 A302 RMK A01 T00980095  RH  098%=      5-min Rain = 0
KPG1 071705Z 04006KT 10/10 A302 RMK A01 T00980095  RH  098%=      5-min Rain = 0
KPG1 071706Z 04007KT 10/10 A302 RMK A01 T00980095  RH  098%=      5-min Rain = 0.01
KPG1 071707Z 04008KT 10/10 A302 RMK A01 T00980095  RH  098%=      5-min Rain = 0
KPG1 071708Z 03007KT 10/10 A302 RMK A01 T00980095  RH  098%=      5-min Rain = 0
KPG1 071709Z 03007KT 10/10 A302 RMK A01 T00980095  RH  098%=      5-min Rain = 0.01
KPG1 071710Z 03008KT 10/10 A302 RMK A01 T00980095  RH  098%=      5-min Rain = 0
KPG1 071711Z 03008KT 10/10 A302 RMK A01 T00980095  RH  098%=      5-min Rain = 0
KPG1 071712Z 03009KT 10/10 A302 RMK A01 T00980095  RH  098%=      5-min Rain = 0
KPG1 071713Z 03009KT 10/10 A302 RMK A01 T00980095  RH  098%=      5-min Rain = 0.01
KPG1 071714Z 04011KT 10/09 A302 RMK A01 T00980094  RH  098%=      5-min Rain = 0
KPG1 071715Z 04010KT 10/09 A302 RMK A01 T00980094  RH  098%=      5-min Rain = 0
KPG1 071716Z 04009KT 10/09 A302 RMK A01 T00980094  RH  098%=      5-min Rain = 0
KPG1 071717Z 04009KT 10/10 A302 RMK A01 T00980095  RH  098%=      5-min Rain = 0
KPG1 071718Z 03009KT 10/10 A302 RMK A01 T00980095  RH  098%=      5-min Rain = 0
KPG1 071719Z 03008KT 10/10 A302 RMK A01 T00980095  RH  098%=      5-min Rain = 0
KPG1 071720Z 03009KT 10/10 A302 RMK A01 T00980095  RH  098%=      5-min Rain = 0
KPG1 071721Z 03009KT 10/10 A302 RMK A01 T00980096  RH  098%=      5-min Rain = 0.01
KPG1 071722Z 02008KT 10/10 A302 RMK A01 T00980095  RH  098%=      5-min Rain = 0
KPG1 071723Z 02008KT 10/10 A302 RMK A01 T00980095  RH  098%=      5-min Rain = 0
KPG1 071724Z 02007KT 10/10 A302 RMK A01 T00980095  RH  098%=      5-min Rain = 0.01
KPG1 071725Z 02008KT 10/10 A302 RMK A01 T00980096  RH  098%=      5-min Rain = 0
KPG1 071726Z 02008KT 10/10 A302 RMK A01 T00980095  RH  098%=      5-min Rain = 0
KPG1 071727Z 02009KT 10/10 A302 RMK A01 T00980095  RH  098%=      5-min Rain = 0
KPG1 071728Z 03009KT 10/10 A302 RMK A01 T00980095  RH  098%=      5-min Rain = 0
KPG1 071729Z 03009KT 10/10 A302 RMK A01 T00970095  RH  098%=      5-min Rain = 0
KPG1 071730Z 02007KT 10/10 A302 RMK A01 T00970095  RH  098%=      5-min Rain = 0.01
KPG1 071731Z 02007KT 10/10 A302 RMK A01 T00980095  RH  098%=      5-min Rain = 0
KPG1 071732Z 02006KT 10/10 A302 RMK A01 T00980095  RH  099%=      5-min Rain = 0
KPG1 071733Z 02006KT 10/10 A302 RMK A01 T00980096  RH  099%=      5-min Rain = 0
KPG1 071734Z 02007KT 10/10 A302 RMK A01 T00980096  RH  099%=      5-min Rain = 0
KPG1 071735Z 02008KT 10/10 A302 RMK A01 T00980096  RH  099%=      5-min Rain = 0
KPG1 071736Z 02007KT 10/10 A302 RMK A01 T00980096  RH  099%=      5-min Rain = 0.01
KPG1 071737Z 02008KT 10/10 A302 RMK A01 T00980096  RH  099%=      5-min Rain = 0
KPG1 071738Z 02008KT 10/10 A302 RMK A01 T00980096  RH  099%=      5-min Rain = 0
KPG1 071739Z 02007KT 10/10 A302 RMK A01 T00980095  RH  098%=      5-min Rain = 0
KPG1 071740Z 00008KT 10/10 A302 RMK A01 T00980096  RH  099%=      5-min Rain = 0
KPG1 071741Z 02007KT 10/10 A302 RMK A01 T00980095  RH  098%=      5-min Rain = 0
KPG1 071742Z 02006KT 10/10 A302 RMK A01 T00970095  RH  098%=      5-min Rain = 0
KPG1 071743Z 02007KT 10/10 A302 RMK A01 T00980095  RH  098%=      5-min Rain = 0
KPG1 071744Z 02008KT 10/10 A302 RMK A01 T00980095  RH  098%=      5-min Rain = 0
KPG1 071745Z 02008KT 10/10 A302 RMK A01 T00980095  RH  098%=      5-min Rain = 0
KPG1 071746Z 02007KT 10/10 A302 RMK A01 T00980095  RH  098%=      5-min Rain = 0.01
KPG1 071747Z 02007KT 10/10 A302 RMK A01 T00980095  RH  098%=      5-min Rain = 0
KPG1 071748Z 01007KT 10/10 A302 RMK A01 T00980096  RH  098%=      5-min Rain = 0
KPG1 071749Z 00007KT 10/10 A302 RMK A01 T00990096  RH  098%=      5-min Rain = 0
KPG1 071750Z 01008KT 10/10 A302 RMK A01 T00990096  RH  098%=      5-min Rain = 0
KPG1 071751Z 01007KT 10/10 A302 RMK A01 T00990096  RH  098%=      5-min Rain = 0
KPG1 071752Z 00008KT 10/10 A302 RMK A01 T01000096  RH  098%=      5-min Rain = 0
KPG1 071753Z 01009KT 10/10 A302 RMK A01 T01000096  RH  098%=      5-min Rain = 0
KPG1 071754Z 01007KT 10/10 A302 RMK A01 T01000097  RH  098%=      5-min Rain = 0
KPG1 071755Z 01008KT 10/10 A302 RMK A01 T01000096  RH  098%=      5-min Rain = 0.01
KPG1 071756Z 01009KT 10/10 A302 RMK A01 T01000096  RH  097%=      5-min Rain = 0
KPG1 071757Z 01008KT 10/10 A302 RMK A01 T01000096  RH  097%=      5-min Rain = 0
KPG1 071758Z 01008KT 10/10 A302 RMK A01 T01000095  RH  097%=      5-min Rain = 0
KPG1 071759Z 02007KT 10/10 A302 RMK A01 T01000095  RH  097%=      5-min Rain = 0
KPG1 071800Z 01008KT 10/10 A302 RMK A01 T01000095  RH  097%=      5-min Rain = 0
KPG1 071801Z 01008KT 10/10 A302 RMK A01 T01000095  RH  097%=      5-min Rain = 0
KPG1 071802Z 01006KT 10/10 A302 RMK A01 T01010096  RH  097%=      5-min Rain = 0.01
KPG1 071803Z 01007KT 10/10 A302 RMK A01 T01010096  RH  097%=      5-min Rain = 0
KPG1 071804Z 01007KT 10/10 A302 RMK A01 T01010096  RH  097%=      5-min Rain = 0
KPG1 071805Z 02007KT 10/10 A302 RMK A01 T01010097  RH  097%=      5-min Rain = 0
KPG1 071806Z 02006KT 10/10 A302 RMK A01 T01010096  RH  097%=      5-min Rain = 0
KPG1 071807Z 02007KT 10/10 A302 RMK A01 T01010096  RH  097%=      5-min Rain = 0.01
KPG1 071808Z 02006KT 10/10 A302 RMK A01 T01010096  RH  097%=      5-min Rain = 0
KPG1 071809Z 01007KT 10/10 A302 RMK A01 T01010097  RH  097%=      5-min Rain = 0
KPG1 071810Z 01007KT 10/10 A302 RMK A01 T01010097  RH  097%=      5-min Rain = 0
KPG1 071811Z 01007KT 10/10 A302 RMK A01 T01010097  RH  097%=      5-min Rain = 0.01
KPG1 071812Z 01006KT 10/10 A302 RMK A01 T01010097  RH  097%=      5-min Rain = 0
KPG1 071813Z 01007KT 10/10 A302 RMK A01 T01020097  RH  097%=      5-min Rain = 0
KPG1 071814Z 01006KT 10/10 A302 RMK A01 T01020097  RH  097%=      5-min Rain = 0
KPG1 071815Z 02007KT 10/10 A302 RMK A01 T01020097  RH  097%=      5-min Rain = 0
KPG1 071816Z 02007KT 10/10 A302 RMK A01 T01020097  RH  097%=      5-min Rain = 0.01
KPG1 071817Z 02006KT 10/10 A302 RMK A01 T01020096  RH  096%=      5-min Rain = 0
KPG1 071818Z 02007KT 10/10 A302 RMK A01 T01020096  RH  097%=      5-min Rain = 0
KPG1 071819Z 02008KT 10/10 A302 RMK A01 T01020096  RH  097%=      5-min Rain = 0
KPG1 071820Z 02008KT 10/10 A302 RMK A01 T01020097  RH  096%=      5-min Rain = 0.01
KPG1 071821Z 01008KT 10/10 A302 RMK A01 T01020096  RH  096%=      5-min Rain = 0
KPG1 071822Z 02007KT 10/10 A302 RMK A01 T01020096  RH  096%=      5-min Rain = 0
KPG1 071823Z 02007KT 10/10 A302 RMK A01 T01020096  RH  096%=      5-min Rain = 0
KPG1 071824Z 02007KT 10/10 A302 RMK A01 T01020096  RH  096%=      5-min Rain = 0
KPG1 071825Z 01007KT 10/10 A302 RMK A01 T01020097  RH  096%=      5-min Rain = 0.01
KPG1 071826Z 02006KT 10/10 A302 RMK A01 T01020097  RH  096%=      5-min Rain = 0
KPG1 071827Z 01007KT 10/10 A302 RMK A01 T01030097  RH  097%=      5-min Rain = 0
KPG1 071828Z 01007KT 10/10 A302 RMK A01 T01030098  RH  097%=      5-min Rain = 0
KPG1 071829Z 01007KT 10/10 A302 RMK A01 T01020097  RH  097%=      5-min Rain = 0
KPG1 071830Z 01007KT 10/10 A302 RMK A01 T01030098  RH  097%=      5-min Rain = 0
KPG1 071831Z 02005KT 10/10 A302 RMK A01 T01030097  RH  097%=      5-min Rain = 0.01
KPG1 071832Z 02005KT 10/10 A302 RMK A01 T01030098  RH  097%=      5-min Rain = 0
KPG1 071833Z 01005KT 10/10 A302 RMK A01 T01030098  RH  097%=      5-min Rain = 0
KPG1 071834Z 02005KT 10/10 A302 RMK A01 T01030098  RH  097%=      5-min Rain = 0
KPG1 071835Z 02004KT 10/10 A302 RMK A01 T01030098  RH  097%=      5-min Rain = 0
KPG1 071836Z 02005KT 10/10 A302 RMK A01 T01030098  RH  097%=      5-min Rain = 0
KPG1 071837Z 03004KT 10/10 A302 RMK A01 T01030098  RH  097%=      5-min Rain = 0
KPG1 071838Z 35003KT 10/10 A302 RMK A01 T01030099  RH  097%=      5-min Rain = 0.01
KPG1 071839Z 23003KT 10/10 A302 RMK A01 T01040100  RH  097%=      5-min Rain = 0
KPG1 071840Z 21005KT 10/10 A302 RMK A01 T01040100  RH  097%=      5-min Rain = 0
KPG1 071841Z 21003KT 10/10 A302 RMK A01 T01040100  RH  098%=      5-min Rain = 0
KPG1 071842Z 20003KT 10/10 A302 RMK A01 T01040101  RH  098%=      5-min Rain = 0
KPG1 071843Z 21004KT 11/10 A302 RMK A01 T01050101  RH  098%=      5-min Rain = 0.01
KPG1 071844Z 21003KT 11/10 A302 RMK A01 T01050101  RH  098%=      5-min Rain = 0
KPG1 071845Z 20004KT 11/10 A302 RMK A01 T01050102  RH  098%=      5-min Rain = 0
KPG1 071846Z 20004KT 11/10 A302 RMK A01 T01050102  RH  098%=      5-min Rain = 0.01
KPG1 071847Z 21003KT 11/10 A302 RMK A01 T01050102  RH  098%=      5-min Rain = 0
KPG1 071848Z 21003KT 11/10 A302 RMK A01 T01050103  RH  098%=      5-min Rain = 0
KPG1 071849Z 21003KT 11/10 A302 RMK A01 T01050103  RH  098%=      5-min Rain = 0.01
KPG1 071850Z 20002KT 11/10 A302 RMK A01 T01060103  RH  099%=      5-min Rain = 0
KPG1 071851Z 20002KT 11/10 A302 RMK A01 T01050103  RH  099%=      5-min Rain = 0
KPG1 071852Z 20002KT 11/10 A302 RMK A01 T01060103  RH  099%=      5-min Rain = 0.01
KPG1 071853Z 20003KT 11/10 A302 RMK A01 T01050104  RH  099%=      5-min Rain = 0
KPG1 071854Z 19003KT 11/10 A302 RMK A01 T01060104  RH  099%=      5-min Rain = 0
KPG1 071855Z 19003KT 11/10 A3019 RMK A01 T01050103  RH  099%=      5-min Rain = 0
KPG1 071856Z 19002KT 11/10 A3019 RMK A01 T01050104  RH  099%=      5-min Rain = 0.01
KPG1 071857Z 19002KT 11/10 A3019 RMK A01 T01050103  RH  099%=      5-min Rain = 0
KPG1 071858Z 19002KT 11/10 A3019 RMK A01 T01050104  RH  099%=      5-min Rain = 0
KPG1 071859Z 20002KT 11/10 A3019 RMK A01 T01050103  RH  099%=      5-min Rain = 0.01
KPG1 071900Z 19002KT 11/10 A3019 RMK A01 T01050104  RH  099%=      5-min Rain = 0
KPG1 071901Z 21001KT 11/10 A3019 RMK A01 T01050103  RH  099%=      5-min Rain = 0
KPG1 071902Z 20002KT 11/10 A3019 RMK A01 T01050104  RH  099%=      5-min Rain = 0.01
KPG1 071903Z 21002KT 11/10 A3019 RMK A01 T01050104  RH  099%=      5-min Rain = 0
KPG1 071904Z 19002KT 11/10 A3019 RMK A01 T01050104  RH  099%=      5-min Rain = 0
KPG1 071905Z 19003KT 11/10 A3019 RMK A01 T01060104  RH  099%=      5-min Rain = 0.01
KPG1 071906Z 19002KT 11/10 A3019 RMK A01 T01050104  RH  099%=      5-min Rain = 0
KPG1 071907Z 20003KT 11/10 A3019 RMK A01 T01050104  RH  099%=      5-min Rain = 0
KPG1 071908Z 21002KT 11/10 A3019 RMK A01 T01050104  RH  099%=      5-min Rain = 0
KPG1 071909Z 21002KT 11/10 A3019 RMK A01 T01050104  RH  099%=      5-min Rain = 0
KPG1 071910Z 21002KT 11/10 A3018 RMK A01 T01050104  RH  099%=      5-min Rain = 0
KPG1 071911Z 20002KT 11/10 A3018 RMK A01 T01050104  RH  099%=      5-min Rain = 0
KPG1 071912Z 20002KT 11/10 A3018 RMK A01 T01050104  RH  099%=      5-min Rain = 0.01
KPG1 071913Z 21002KT 11/10 A3018 RMK A01 T01050104  RH  099%=      5-min Rain = 0
KPG1 071914Z 21002KT 11/10 A3018 RMK A01 T01050104  RH  099%=      5-min Rain = 0
KPG1 071915Z 21002KT 11/10 A3018 RMK A01 T01050104  RH  099%=      5-min Rain = 0
KPG1 071916Z 21002KT 11/10 A3018 RMK A01 T01050104  RH  099%=      5-min Rain = 0
KPG1 071917Z 20003KT 11/10 A3018 RMK A01 T01050104  RH  099%=      5-min Rain = 0
KPG1 071918Z 20002KT 11/10 A3018 RMK A01 T01050104  RH  099%=      5-min Rain = 0.01
KPG1 071919Z 20003KT 10/10 A3018 RMK A01 T01040103  RH  099%=      5-min Rain = 0
KPG1 071920Z 20003KT 11/10 A3018 RMK A01 T01050104  RH  099%=      5-min Rain = 0
KPG1 071921Z 21003KT 11/10 A3018 RMK A01 T01050104  RH  099%=      5-min Rain = 0
KPG1 071922Z 21003KT 11/10 A3018 RMK A01 T01050104  RH  099%=      5-min Rain = 0
KPG1 071923Z 20002KT 11/10 A3018 RMK A01 T01050104  RH  099%=      5-min Rain = 0
KPG1 071924Z 20002KT 10/10 A3018 RMK A01 T01040104  RH  099%=      5-min Rain = 0.01
KPG1 071925Z 20003KT 10/10 A3018 RMK A01 T01040104  RH  099%=      5-min Rain = 0
KPG1 071926Z 20003KT 10/10 A3018 RMK A01 T01040104  RH  099%=      5-min Rain = 0
KPG1 071927Z 21003KT 10/10 A3018 RMK A01 T01040104  RH  099%=      5-min Rain = 0
KPG1 071928Z 21003KT 11/10 A3018 RMK A01 T01050104  RH  099%=      5-min Rain = 0
KPG1 071929Z 21003KT 11/10 A3018 RMK A01 T01050104  RH  099%=      5-min Rain = 0.01
KPG1 071930Z 20003KT 11/10 A3018 RMK A01 T01050104  RH  099%=      5-min Rain = 0
KPG1 071931Z 20003KT 11/10 A3018 RMK A01 T01050104  RH  099%=      5-min Rain = 0
KPG1 071932Z 20003KT 11/10 A3018 RMK A01 T01050104  RH  099%=      5-min Rain = 0
KPG1 071933Z 20002KT 11/10 A3017 RMK A01 T01050104  RH  099%=      5-min Rain = 0
KPG1 071934Z 20002KT 11/11 A3017 RMK A01 T01050105  RH  100%=      5-min Rain = 0.01
KPG1 071935Z 19003KT 11/10 A3017 RMK A01 T01050104  RH  100%=      5-min Rain = 0
KPG1 071936Z 19003KT 11/11 A3017 RMK A01 T01050105  RH  100%=      5-min Rain = 0
KPG1 071937Z 19003KT 11/11 A3017 RMK A01 T01050105  RH  100%=      5-min Rain = 0
KPG1 071938Z 19002KT 11/10 A3017 RMK A01 T01050104  RH  099%=      5-min Rain = 0.01
KPG1 071939Z 20002KT 11/10 A3017 RMK A01 T01050104  RH  100%=      5-min Rain = 0
KPG1 071940Z 19002KT 11/10 A3017 RMK A01 T01050104  RH  100%=      5-min Rain = 0
KPG1 071941Z 19002KT 11/11 A3017 RMK A01 T01050105  RH  100%=      5-min Rain = 0.01
KPG1 071942Z 20002KT 11/11 A3016 RMK A01 T01060105  RH  100%=      5-min Rain = 0
KPG1 071943Z 20003KT 11/11 A3016 RMK A01 T01060106  RH  100%=      5-min Rain = 0
KPG1 071944Z 21003KT 11/11 A3016 RMK A01 T01060106  RH  100%=      5-min Rain = 0
KPG1 071945Z 20003KT 11/11 A3017 RMK A01 T01060105  RH  100%=      5-min Rain = 0
KPG1 071946Z 20003KT 11/11 A3017 RMK A01 T01050105  RH  100%=      5-min Rain = 0
KPG1 071947Z 20002KT 11/10 A3016 RMK A01 T01050104  RH  100%=      5-min Rain = 0.01
KPG1 071948Z 18003KT 11/11 A3016 RMK A01 T01050105  RH  100%=      5-min Rain = 0
KPG1 071949Z 17003KT 11/11 A3016 RMK A01 T01050105  RH  100%=      5-min Rain = 0
KPG1 071950Z 17002KT 11/11 A3016 RMK A01 T01050105  RH  100%=      5-min Rain = 0
KPG1 071951Z 16002KT 11/11 A3016 RMK A01 T01050105  RH  100%=      5-min Rain = 0
KPG1 071952Z 16002KT 11/11 A3016 RMK A01 T01050105  RH  100%=      5-min Rain = 0.01
KPG1 071953Z 16002KT 11/11 A3015 RMK A01 T01050105  RH  100%=      5-min Rain = 0
KPG1 071954Z 15002KT 11/11 A3015 RMK A01 T01050105  RH  100%=      5-min Rain = 0
KPG1 071955Z 15002KT 11/11 A3015 RMK A01 T01050105  RH  100%=      5-min Rain = 0
KPG1 071956Z 15002KT 11/10 A3015 RMK A01 T01050104  RH  100%=      5-min Rain = 0
KPG1 071957Z 15001KT 11/10 A3015 RMK A01 T01050104  RH  100%=      5-min Rain = 0.01
KPG1 071958Z 14001KT 11/11 A3015 RMK A01 T01050105  RH  100%=      5-min Rain = 0
KPG1 071959Z 14001KT 11/11 A3015 RMK A01 T01050105  RH  100%=      5-min Rain = 0
KPG1 072000Z 14001KT 11/11 A3015 RMK A01 T01050105  RH  100%=      5-min Rain = 0
KPG1 072001Z 13002KT 11/11 A3015 RMK A01 T01050105  RH  100%=      5-min Rain = 0
KPG1 072002Z 13002KT 11/10 A3015 RMK A01 T01050104  RH  100%=      5-min Rain = 0
KPG1 072003Z 13002KT 11/10 A3015 RMK A01 T01050104  RH  100%=      5-min Rain = 0.01
KPG1 072004Z 14002KT 10/10 A3015 RMK A01 T01040104  RH  100%=      5-min Rain = 0
KPG1 072005Z 15002KT 10/10 A3015 RMK A01 T01040104  RH  100%=      5-min Rain = 0
KPG1 072006Z 15002KT 10/10 A3015 RMK A01 T01040104  RH  100%=      5-min Rain = 0
KPG1 072007Z 15002KT 11/10 A3015 RMK A01 T01050104  RH  100%=      5-min Rain = 0
KPG1 072008Z 16002KT 10/10 A3015 RMK A01 T01040104  RH  100%=      5-min Rain = 0
KPG1 072009Z 16002KT 10/10 A3015 RMK A01 T01040104  RH  100%=      5-min Rain = 0.01
KPG1 072010Z 17002KT 11/10 A3015 RMK A01 T01050104  RH  100%=      5-min Rain = 0
KPG1 072011Z 17001KT 11/10 A3015 RMK A01 T01050104  RH  100%=      5-min Rain = 0
KPG1 072012Z 17002KT 11/10 A3015 RMK A01 T01050104  RH  100%=      5-min Rain = 0
KPG1 072013Z 17002KT 11/11 A3015 RMK A01 T01050105  RH  100%=      5-min Rain = 0
KPG1 072014Z 17003KT 11/11 A3015 RMK A01 T01050105  RH  100%=      5-min Rain = 0
KPG1 072015Z 17003KT 11/10 A3015 RMK A01 T01050104  RH  100%=      5-min Rain = 0
KPG1 072016Z 17003KT 11/11 A3015 RMK A01 T01050105  RH  100%=      5-min Rain = 0
KPG1 072017Z 18003KT 11/11 A3015 RMK A01 T01050105  RH  100%=      5-min Rain = 0
KPG1 072018Z 18003KT 11/11 A3015 RMK A01 T01050105  RH  100%=      5-min Rain = 0
KPG1 072019Z 17003KT 11/10 A3015 RMK A01 T01050104  RH  100%=      5-min Rain = 0.01
KPG1 072020Z 17003KT 11/11 A3015 RMK A01 T01050105  RH  100%=      5-min Rain = 0
KPG1 072021Z 17003KT 11/10 A3015 RMK A01 T01050104  RH  100%=      5-min Rain = 0
KPG1 072022Z 18004KT 11/11 A3015 RMK A01 T01050105  RH  100%=      5-min Rain = 0
KPG1 072023Z 18003KT 11/10 A3015 RMK A01 T01050104  RH  100%=      5-min Rain = 0
KPG1 072024Z 18004KT 11/10 A3015 RMK A01 T01050104  RH  100%=      5-min Rain = 0
KPG1 072025Z 18004KT 11/11 A3015 RMK A01 T01050105  RH  100%=      5-min Rain = 0.01
KPG1 072026Z 18003KT 11/11 A3015 RMK A01 T01050105  RH  100%=      5-min Rain = 0
KPG1 072027Z 17003KT 11/10 A3015 RMK A01 T01050104  RH  100%=      5-min Rain = 0
KPG1 072028Z 17004KT 11/11 A3015 RMK A01 T01050105  RH  100%=      5-min Rain = 0.01
KPG1 072029Z 18003KT 11/10 A3015 RMK A01 T01050104  RH  100%=      5-min Rain = 0
KPG1 072030Z 17004KT 11/10 A3015 RMK A01 T01050104  RH  100%=      5-min Rain = 0.01
KPG1 072031Z 18003KT 11/10 A3015 RMK A01 T01050104  RH  100%=      5-min Rain = 0
KPG1 072032Z 17003KT 11/11 A3015 RMK A01 T01050105  RH  100%=      5-min Rain = 0.01
KPG1 072033Z 18003KT 11/10 A3015 RMK A01 T01050104  RH  100%=      5-min Rain = 0
KPG1 072034Z 18003KT 11/10 A3015 RMK A01 T01050104  RH  100%=      5-min Rain = 0
KPG1 072035Z 18004KT 11/11 A3015 RMK A01 T01050105  RH  100%=      5-min Rain = 0.01
KPG1 072036Z 18004KT 11/10 A3015 RMK A01 T01050104  RH  100%=      5-min Rain = 0
KPG1 072037Z 18004KT 11/11 A3015 RMK A01 T01050105  RH  100%=      5-min Rain = 0.01
KPG1 072038Z 18004KT 11/11 A3015 RMK A01 T01050105  RH  100%=      5-min Rain = 0
KPG1 072039Z 18004KT 11/10 A3015 RMK A01 T01050104  RH  100%=      5-min Rain = 0
KPG1 072040Z 18004KT 11/10 A3015 RMK A01 T01050104  RH  100%=      5-min Rain = 0.01
KPG1 072041Z 18004KT 10/10 A3015 RMK A01 T01040104  RH  100%=      5-min Rain = 0
KPG1 072042Z 18005KT 11/10 A3015 RMK A01 T01050104  RH  100%=      5-min Rain = 0.01
KPG1 072043Z 19004KT 11/10 A3015 RMK A01 T01050104  RH  100%=      5-min Rain = 0
KPG1 072044Z 18004KT 10/10 A3015 RMK A01 T01040104  RH  100%=      5-min Rain = 0
KPG1 072045Z 17004KT 11/10 A3015 RMK A01 T01050104  RH  100%=      5-min Rain = 0.01
KPG1 072046Z 17004KT 11/10 A3015 RMK A01 T01050104  RH  100%=      5-min Rain = 0
KPG1 072047Z 17004KT 11/11 A3015 RMK A01 T01050105  RH  100%=      5-min Rain = 0
KPG1 072048Z 17005KT 11/10 A3015 RMK A01 T01050104  RH  100%=      5-min Rain = 0.01
KPG1 072049Z 18004KT 11/10 A3015 RMK A01 T01050104  RH  100%=      5-min Rain = 0
KPG1 072050Z 18005KT 11/10 A3015 RMK A01 T01050104  RH  100%=      5-min Rain = 0
KPG1 072051Z 18005KT 10/10 A3015 RMK A01 T01040104  RH  100%=      5-min Rain = 0.01
KPG1 072052Z 18005KT 10/10 A3014 RMK A01 T01040103  RH  100%=      5-min Rain = 0
KPG1 072053Z 17005KT 10/10 A3014 RMK A01 T01040103  RH  100%=      5-min Rain = 0
KPG1 072054Z 17005KT 10/10 A3014 RMK A01 T01040103  RH  100%=      5-min Rain = 0
KPG1 072055Z 18004KT 10/10 A3014 RMK A01 T01040103  RH  100%=      5-min Rain = 0.01
KPG1 072056Z 17005KT 10/10 A3014 RMK A01 T01040103  RH  100%=      5-min Rain = 0
KPG1 072057Z 17006KT 10/10 A3014 RMK A01 T01030103  RH  100%=      5-min Rain = 0
KPG1 072058Z 18005KT 10/10 A3014 RMK A01 T01040103  RH  100%=      5-min Rain = 0.01
KPG1 072059Z 19005KT 10/10 A3015 RMK A01 T01030103  RH  100%=      5-min Rain = 0
KPG1 072100Z 19005KT 10/10 A3015 RMK A01 T01040104  RH  100%=      5-min Rain = 0
KPG1 072101Z 19006KT 10/10 A3015 RMK A01 T01040104  RH  100%=      5-min Rain = 0.01
KPG1 072102Z 19005KT 10/10 A3015 RMK A01 T01040104  RH  100%=      5-min Rain = 0
KPG1 072103Z 19005KT 10/10 A3015 RMK A01 T01040104  RH  100%=      5-min Rain = 0
KPG1 072104Z 18005KT 10/10 A3015 RMK A01 T01040104  RH  100%=      5-min Rain = 0
KPG1 072105Z 19005KT 11/11 A3015 RMK A01 T01050105  RH  100%=      5-min Rain = 0
KPG1 072106Z 20005KT 11/11 A3015 RMK A01 T01050105  RH  100%=      5-min Rain = 0
KPG1 072107Z 20005KT 11/11 A3015 RMK A01 T01050105  RH  100%=      5-min Rain = 0
KPG1 072108Z 19006KT 11/11 A3015 RMK A01 T01050105  RH  100%=      5-min Rain = 0
KPG1 072109Z 19005KT 11/11 A3015 RMK A01 T01050105  RH  100%=      5-min Rain = 0
KPG1 072110Z 19005KT 11/11 A3015 RMK A01 T01050105  RH  100%=      5-min Rain = 0.01
KPG1 072111Z 18005KT 11/11 A3015 RMK A01 T01050105  RH  100%=      5-min Rain = 0
KPG1 072112Z 18006KT 11/11 A3015 RMK A01 T01050105  RH  100%=      5-min Rain = 0
KPG1 072113Z 18006KT 11/11 A3015 RMK A01 T01050105  RH  100%=      5-min Rain = 0
KPG1 072114Z 18005KT 11/11 A3015 RMK A01 T01050105  RH  100%=      5-min Rain = 0
KPG1 072115Z 18006KT 11/11 A3015 RMK A01 T01050105  RH  100%=      5-min Rain = 0
KPG1 072116Z 19005KT 11/11 A3015 RMK A01 T01050105  RH  100%=      5-min Rain = 0
KPG1 072117Z 20005KT 11/11 A3015 RMK A01 T01050105  RH  100%=      5-min Rain = 0
KPG1 072118Z 20005KT 11/11 A3015 RMK A01 T01050105  RH  100%=      5-min Rain = 0
KPG1 072119Z 19006KT 11/11 A3015 RMK A01 T01050105  RH  100%=      5-min Rain = 0
KPG1 072120Z 19005KT 10/10 A3015 RMK A01 T01040104  RH  100%=      5-min Rain = 0
KPG1 072121Z 19004KT 10/10 A3014 RMK A01 T01040104  RH  100%=      5-min Rain = 0
KPG1 072122Z 19005KT 10/10 A3014 RMK A01 T01040104  RH  100%=      5-min Rain = 0
KPG1 072123Z 18004KT 10/10 A3014 RMK A01 T01040104  RH  100%=      5-min Rain = 0
KPG1 072124Z 18004KT 10/10 A3014 RMK A01 T01040104  RH  100%=      5-min Rain = 0
KPG1 072125Z 18005KT 10/10 A3014 RMK A01 T01040104  RH  100%=      5-min Rain = 0
KPG1 072126Z 18004KT 10/10 A3014 RMK A01 T01040104  RH  100%=      5-min Rain = 0
KPG1 072127Z 17003KT 10/10 A3014 RMK A01 T01040104  RH  100%=      5-min Rain = 0.01
KPG1 072128Z 17003KT 10/10 A3014 RMK A01 T01040104  RH  100%=      5-min Rain = 0
KPG1 072129Z 18004KT 10/10 A3014 RMK A01 T01040104  RH  100%=      5-min Rain = 0
KPG1 072130Z 18004KT 10/10 A3014 RMK A01 T01040104  RH  100%=      5-min Rain = 0
KPG1 072131Z 18003KT 10/10 A3014 RMK A01 T01040104  RH  100%=      5-min Rain = 0
KPG1 072132Z 18003KT 10/10 A3014 RMK A01 T01040104  RH  100%=      5-min Rain = 0
KPG1 072133Z 19003KT 10/10 A3014 RMK A01 T01040104  RH  100%=      5-min Rain = 0
KPG1 072134Z 18004KT 10/10 A3014 RMK A01 T01040104  RH  100%=      5-min Rain = 0
KPG1 072135Z 18004KT 10/10 A3014 RMK A01 T01040104  RH  100%=      5-min Rain = 0
KPG1 072136Z 18004KT 10/10 A3014 RMK A01 T01040104  RH  100%=      5-min Rain = 0
KPG1 072137Z 17005KT 10/10 A3014 RMK A01 T01040104  RH  100%=      5-min Rain = 0
KPG1 072138Z 16005KT 10/10 A3014 RMK A01 T01040104  RH  100%=      5-min Rain = 0
KPG1 072139Z 16005KT 10/10 A3014 RMK A01 T01040104  RH  100%=      5-min Rain = 0
KPG1 072140Z 17005KT 10/10 A3014 RMK A01 T01040104  RH  100%=      5-min Rain = 0
KPG1 072141Z 18005KT 10/10 A3015 RMK A01 T01040104  RH  100%=      5-min Rain = 0
KPG1 072142Z 18005KT 10/10 A3015 RMK A01 T01040104  RH  100%=      5-min Rain = 0
KPG1 072143Z 18005KT 11/11 A3015 RMK A01 T01050105  RH  100%=      5-min Rain = 0
KPG1 072144Z 18005KT 10/10 A3015 RMK A01 T01040104  RH  100%=      5-min Rain = 0
KPG1 072145Z 19005KT 10/10 A3015 RMK A01 T01040104  RH  100%=      5-min Rain = 0
KPG1 072146Z 18007KT 11/11 A3015 RMK A01 T01050105  RH  100%=      5-min Rain = 0
KPG1 072147Z 17006KT 11/11 A3015 RMK A01 T01050105  RH  100%=      5-min Rain = 0
KPG1 072148Z 17006KT 10/10 A3015 RMK A01 T01040104  RH  100%=      5-min Rain = 0
KPG1 072149Z 17004KT 10/10 A3014 RMK A01 T01040104  RH  100%=      5-min Rain = 0
KPG1 072150Z 17004KT 10/10 A3014 RMK A01 T01040104  RH  100%=      5-min Rain = 0
KPG1 072151Z 16004KT 10/10 A3014 RMK A01 T01040104  RH  100%=      5-min Rain = 0
KPG1 072152Z 16004KT 10/10 A3014 RMK A01 T01040104  RH  100%=      5-min Rain = 0
KPG1 072153Z 17004KT 10/10 A3014 RMK A01 T01040104  RH  100%=      5-min Rain = 0
KPG1 072154Z 17004KT 10/10 A3014 RMK A01 T01040104  RH  100%=      5-min Rain = 0
KPG1 072155Z 17004KT 10/10 A3014 RMK A01 T01040104  RH  100%=      5-min Rain = 0
KPG1 072156Z 17003KT 10/10 A3013 RMK A01 T01040104  RH  100%=      5-min Rain = 0
KPG1 072157Z 17003KT 10/10 A3013 RMK A01 T01040104  RH  100%=      5-min Rain = 0
KPG1 072158Z 17004KT 11/11 A3013 RMK A01 T01050105  RH  100%=      5-min Rain = 0
KPG1 072159Z 18004KT 11/11 A3013 RMK A01 T01050105  RH  100%=      5-min Rain = 0
KPG1 072200Z 18003KT 11/11 A3013 RMK A01 T01050105  RH  100%=      5-min Rain = 0
KPG1 072201Z 18003KT 11/11 A3013 RMK A01 T01050105  RH  100%=      5-min Rain = 0
KPG1 072202Z 17003KT 11/11 A3013 RMK A01 T01050105  RH  100%=      5-min Rain = 0
KPG1 072203Z 19002KT 10/10 A3013 RMK A01 T01040104  RH  100%=      5-min Rain = 0
KPG1 072204Z 17002KT 11/11 A3013 RMK A01 T01050105  RH  100%=      5-min Rain = 0
KPG1 072205Z 21002KT 10/11 A3013 RMK A01 T01040105  RH  100%=      5-min Rain = 0
KPG1 072206Z 21002KT 11/11 A3013 RMK A01 T01050105  RH  100%=      5-min Rain = 0
KPG1 072207Z 22003KT 10/10 A3013 RMK A01 T01040104  RH  100%=      5-min Rain = 0
KPG1 072208Z 20004KT 11/11 A3013 RMK A01 T01050105  RH  100%=      5-min Rain = 0.01
KPG1 072209Z 20004KT 11/11 A3013 RMK A01 T01050105  RH  100%=      5-min Rain = 0
KPG1 072210Z 19004KT 11/11 A3013 RMK A01 T01050105  RH  100%=      5-min Rain = 0
KPG1 072211Z 19003KT 11/11 A3013 RMK A01 T01050105  RH  100%=      5-min Rain = 0
KPG1 072212Z 18003KT 11/11 A3013 RMK A01 T01050106  RH  100%=      5-min Rain = 0
KPG1 072213Z 20003KT 11/11 A3013 RMK A01 T01060106  RH  100%=      5-min Rain = 0
KPG1 072214Z 21003KT 11/11 A3013 RMK A01 T01060106  RH  100%=      5-min Rain = 0
KPG1 072215Z 25003KT 11/11 A3013 RMK A01 T01060106  RH  100%=      5-min Rain = 0
KPG1 072216Z 22002KT 11/11 A3013 RMK A01 T01060106  RH  100%=      5-min Rain = 0
KPG1 072217Z 24003KT 11/11 A3013 RMK A01 T01060106  RH  100%=      5-min Rain = 0
KPG1 072218Z 25002KT 11/11 A3013 RMK A01 T01060106  RH  100%=      5-min Rain = 0
KPG1 072219Z 26001KT 11/11 A3013 RMK A01 T01050105  RH  100%=      5-min Rain = 0
KPG1 072220Z 28001KT 11/11 A3013 RMK A01 T01050105  RH  100%=      5-min Rain = 0
KPG1 072221Z 32000KT 11/11 A3013 RMK A01 T01050105  RH  100%=      5-min Rain = 0
KPG1 072222Z 00000KT 11/11 A3013 RMK A01 T01060106  RH  100%=      5-min Rain = 0
KPG1 072223Z 35000KT 11/11 A3013 RMK A01 T01060106  RH  100%=      5-min Rain = 0
KPG1 072224Z 33001KT 11/11 A3013 RMK A01 T01060106  RH  100%=      5-min Rain = 0
KPG1 072225Z 35001KT 11/11 A3014 RMK A01 T01060106  RH  100%=      5-min Rain = 0
KPG1 072226Z 34001KT 11/11 A3014 RMK A01 T01060106  RH  100%=      5-min Rain = 0
KPG1 072227Z 02001KT 11/11 A3014 RMK A01 T01060106  RH  100%=      5-min Rain = 0
KPG1 072228Z 05002KT 11/11 A3014 RMK A01 T01060106  RH  100%=      5-min Rain = 0
KPG1 072229Z 03005KT 11/11 A3014 RMK A01 T01070107  RH  100%=      5-min Rain = 0
KPG1 072230Z 04005KT 11/11 A3014 RMK A01 T01070107  RH  100%=      5-min Rain = 0
KPG1 072231Z 04006KT 11/11 A3014 RMK A01 T01060106  RH  100%=      5-min Rain = 0
KPG1 072232Z 04005KT 11/11 A3014 RMK A01 T01050106  RH  100%=      5-min Rain = 0
KPG1 072233Z 03004KT 11/11 A3014 RMK A01 T01050105  RH  100%=      5-min Rain = 0
KPG1 072234Z 04005KT 11/11 A3014 RMK A01 T01050105  RH  100%=      5-min Rain = 0
KPG1 072235Z 04005KT 11/11 A3014 RMK A01 T01050105  RH  100%=      5-min Rain = 0
KPG1 072236Z 05005KT 11/11 A3014 RMK A01 T01050105  RH  100%=      5-min Rain = 0
KPG1 072237Z 04005KT 11/11 A3014 RMK A01 T01050105  RH  100%=      5-min Rain = 0
KPG1 072238Z 05006KT 11/11 A3014 RMK A01 T01050105  RH  100%=      5-min Rain = 0
KPG1 072239Z 05006KT 10/11 A3014 RMK A01 T01040105  RH  100%=      5-min Rain = 0
KPG1 072240Z 05007KT 10/10 A3014 RMK A01 T01040104  RH  100%=      5-min Rain = 0
KPG1 072241Z 05007KT 10/10 A3014 RMK A01 T01040103  RH  100%=      5-min Rain = 0
KPG1 072242Z 05007KT 10/10 A3014 RMK A01 T01030103  RH  100%=      5-min Rain = 0.01
KPG1 072243Z 05007KT 10/10 A3014 RMK A01 T01030102  RH  100%=      5-min Rain = 0
KPG1 072244Z 04007KT 10/10 A3014 RMK A01 T01020102  RH  100%=      5-min Rain = 0
KPG1 072245Z 04006KT 10/10 A3014 RMK A01 T01020102  RH  100%=      5-min Rain = 0
KPG1 072246Z 04005KT 10/10 A3014 RMK A01 T01020102  RH  100%=      5-min Rain = 0
KPG1 072247Z 04006KT 10/10 A3014 RMK A01 T01020102  RH  100%=      5-min Rain = 0
KPG1 072248Z 05006KT 10/10 A3014 RMK A01 T01020102  RH  100%=      5-min Rain = 0
KPG1 072249Z 05006KT 10/10 A3014 RMK A01 T01020102  RH  100%=      5-min Rain = 0
KPG1 072250Z 04007KT 10/10 A3014 RMK A01 T01020102  RH  100%=      5-min Rain = 0
KPG1 072251Z 04008KT 10/10 A3014 RMK A01 T01020102  RH  100%=      5-min Rain = 0
KPG1 072252Z 04007KT 10/10 A3013 RMK A01 T01020102  RH  100%=      5-min Rain = 0
KPG1 072253Z 04007KT 10/10 A3013 RMK A01 T01020102  RH  100%=      5-min Rain = 0
KPG1 072254Z 05006KT 10/10 A3013 RMK A01 T01020102  RH  100%=      5-min Rain = 0
KPG1 072255Z 05006KT 10/10 A3013 RMK A01 T01020102  RH  100%=      5-min Rain = 0
KPG1 072256Z 06007KT 10/10 A3013 RMK A01 T01020102  RH  100%=      5-min Rain = 0
KPG1 072257Z 05008KT 10/10 A3013 RMK A01 T01020102  RH  100%=      5-min Rain = 0
KPG1 072258Z 06008KT 10/10 A3014 RMK A01 T01010101  RH  100%=      5-min Rain = 0
KPG1 072259Z 06008KT 10/10 A3014 RMK A01 T01010101  RH  100%=      5-min Rain = 0
KPG1 072300Z 06008KT 10/10 A3014 RMK A01 T01010101  RH  100%=      5-min Rain = 0
KPG1 072301Z 06008KT 10/10 A3014 RMK A01 T01000100  RH  100%=      5-min Rain = 0
KPG1 072302Z 06007KT 10/10 A3014 RMK A01 T01010101  RH  100%=      5-min Rain = 0
KPG1 072303Z 05007KT 10/10 A3014 RMK A01 T01000100  RH  100%=      5-min Rain = 0
KPG1 072304Z 05006KT 10/10 A3013 RMK A01 T01000100  RH  100%=      5-min Rain = 0.01
KPG1 072305Z 05007KT 10/10 A3013 RMK A01 T01000100  RH  100%=      5-min Rain = 0
KPG1 072306Z 06007KT 10/10 A3013 RMK A01 T01000100  RH  100%=      5-min Rain = 0
KPG1 072307Z 06006KT 10/10 A3013 RMK A01 T01000100  RH  100%=      5-min Rain = 0
KPG1 072308Z 05008KT 10/10 A3013 RMK A01 T01000100  RH  100%=      5-min Rain = 0
KPG1 072309Z 06007KT 10/10 A3014 RMK A01 T01000101  RH  100%=      5-min Rain = 0
KPG1 072310Z 06007KT 10/10 A3014 RMK A01 T01000101  RH  100%=      5-min Rain = 0
KPG1 072311Z 06008KT 10/10 A3014 RMK A01 T01000100  RH  100%=      5-min Rain = 0
KPG1 072312Z 05008KT 10/10 A3014 RMK A01 T01000100  RH  100%=      5-min Rain = 0
KPG1 072313Z 05007KT 10/10 A3014 RMK A01 T00990099  RH  100%=      5-min Rain = 0
KPG1 072314Z 05006KT 10/10 A3015 RMK A01 T00990099  RH  100%=      5-min Rain = 0
KPG1 072315Z 05005KT 10/10 A3015 RMK A01 T00990099  RH  100%=      5-min Rain = 0
KPG1 072316Z 04004KT 10/10 A3015 RMK A01 T00990099  RH  100%=      5-min Rain = 0
KPG1 072317Z 04007KT 10/10 A3015 RMK A01 T00990099  RH  100%=      5-min Rain = 0
KPG1 072318Z 04006KT 10/10 A3015 RMK A01 T00990099  RH  100%=      5-min Rain = 0
KPG1 072319Z 02006KT 10/10 A3015 RMK A01 T00990099  RH  100%=      5-min Rain = 0
KPG1 072320Z 02007KT 10/10 A3015 RMK A01 T00990099  RH  100%=      5-min Rain = 0
KPG1 072321Z 02006KT 10/10 A3015 RMK A01 T00980098  RH  100%=      5-min Rain = 0
KPG1 072322Z 03006KT 10/10 A3014 RMK A01 T00990099  RH  100%=      5-min Rain = 0
KPG1 072323Z 03007KT 10/10 A3014 RMK A01 T00990099  RH  100%=      5-min Rain = 0
KPG1 072324Z 03007KT 10/10 A3014 RMK A01 T00990099  RH  100%=      5-min Rain = 0
KPG1 072325Z 03007KT 10/10 A3014 RMK A01 T00990099  RH  100%=      5-min Rain = 0
KPG1 072326Z 05007KT 10/10 A3014 RMK A01 T00980099  RH  100%=      5-min Rain = 0
KPG1 072327Z 05006KT 10/10 A3014 RMK A01 T00990099  RH  100%=      5-min Rain = 0
KPG1 072328Z 05005KT 10/10 A3014 RMK A01 T00990099  RH  100%=      5-min Rain = 0
KPG1 072329Z 07006KT 10/10 A3014 RMK A01 T00990099  RH  100%=      5-min Rain = 0
KPG1 072330Z 08008KT 10/10 A3014 RMK A01 T00990099  RH  100%=      5-min Rain = 0
KPG1 072331Z 07008KT 10/10 A3013 RMK A01 T00990099  RH  100%=      5-min Rain = 0
KPG1 072332Z 07008KT 10/10 A3013 RMK A01 T00990099  RH  100%=      5-min Rain = 0
KPG1 072333Z 07007KT 10/10 A3013 RMK A01 T00990099  RH  100%=      5-min Rain = 0
KPG1 072334Z 07008KT 10/10 A3013 RMK A01 T00990099  RH  100%=      5-min Rain = 0
KPG1 072335Z 07008KT 10/10 A3013 RMK A01 T00990099  RH  100%=      5-min Rain = 0
KPG1 072336Z 07010KT 10/10 A3013 RMK A01 T00990099  RH  100%=      5-min Rain = 0
KPG1 072337Z 07009KT 10/10 A3013 RMK A01 T00980098  RH  100%=      5-min Rain = 0
KPG1 072338Z 06009KT 10/10 A3014 RMK A01 T00980098  RH  100%=      5-min Rain = 0
KPG1 072339Z 07009KT 10/10 A3014 RMK A01 T00980098  RH  100%=      5-min Rain = 0.01
KPG1 072340Z 07009KT 10/10 A3014 RMK A01 T00980098  RH  100%=      5-min Rain = 0
KPG1 072341Z 06007KT 10/10 A3014 RMK A01 T00980098  RH  100%=      5-min Rain = 0
KPG1 072342Z 06007KT 10/10 A3014 RMK A01 T00980098  RH  100%=      5-min Rain = 0
KPG1 072343Z 06006KT 10/10 A3014 RMK A01 T00980098  RH  100%=      5-min Rain = 0
KPG1 072344Z 06009KT 10/10 A3013 RMK A01 T00980098  RH  100%=      5-min Rain = 0
KPG1 072345Z 06010KT 10/10 A3013 RMK A01 T00970098  RH  100%=      5-min Rain = 0
KPG1 072346Z 07009KT 10/10 A3013 RMK A01 T00980098  RH  100%=      5-min Rain = 0
KPG1 072347Z 06011KT 10/10 A3013 RMK A01 T00980098  RH  100%=      5-min Rain = 0
KPG1 072348Z 06010KT 10/10 A3013 RMK A01 T00970098  RH  100%=      5-min Rain = 0
KPG1 072349Z 06007KT 10/10 A3013 RMK A01 T00980098  RH  100%=      5-min Rain = 0
KPG1 072350Z 07006KT 10/10 A3013 RMK A01 T00980098  RH  100%=      5-min Rain = 0
KPG1 072351Z 07007KT 10/10 A3013 RMK A01 T00980098  RH  100%=      5-min Rain = 0
KPG1 072352Z 07007KT 10/10 A3013 RMK A01 T00990099  RH  100%=      5-min Rain = 0
KPG1 072353Z 07006KT 10/10 A3013 RMK A01 T00990099  RH  100%=      5-min Rain = 0.01
KPG1 072354Z 06007KT 10/10 A3014 RMK A01 T00990099  RH  100%=      5-min Rain = 0
KPG1 072355Z 06005KT 10/10 A3014 RMK A01 T00990099  RH  100%=      5-min Rain = 0
KPG1 072356Z 06006KT 10/10 A3014 RMK A01 T00990099  RH  100%=      5-min Rain = 0
KPG1 072357Z 05006KT 10/10 A3014 RMK A01 T00980098  RH  100%=      5-min Rain = 0
KPG1 072358Z 05008KT 10/10 A3013 RMK A01 T00990099  RH  100%=      5-min Rain = 0
KPG1 072359Z 05009KT 10/10 A3013 RMK A01 T00980098  RH  100%=      5-min Rain = 0
KPG1 080000Z 05007KT 10/10 A3013 RMK A01 T00980098  RH  100%=      5-min Rain = 0
KPG1 080001Z 06007KT 10/10 A3013 RMK A01 T00980098  RH  100%=      5-min Rain = 0
KPG1 080002Z 06008KT 10/10 A3013 RMK A01 T00980098  RH  100%=      5-min Rain = 0
KPG1 080003Z 06009KT 10/10 A3013 RMK A01 T00980098  RH  100%=      5-min Rain = 0
KPG1 080004Z 06009KT 10/10 A3013 RMK A01 T00980098  RH  100%=      5-min Rain = 0
KPG1 080005Z 06008KT 10/10 A3013 RMK A01 T00980098  RH  100%=      5-min Rain = 0
KPG1 080006Z 06008KT 10/10 A3013 RMK A01 T00980098  RH  100%=      5-min Rain = 0
KPG1 080007Z 06009KT 10/10 A3013 RMK A01 T00980098  RH  100%=      5-min Rain = 0
KPG1 080008Z 06009KT 10/10 A3013 RMK A01 T00980098  RH  100%=      5-min Rain = 0
KPG1 080009Z 06011KT 10/10 A3012 RMK A01 T00980098  RH  100%=      5-min Rain = 0
KPG1 080010Z 07012KT 10/10 A3011 RMK A01 T00980098  RH  100%=      5-min Rain = 0
KPG1 080011Z 07014KT 10/10 A3009 RMK A01 T00980098  RH  100%=      5-min Rain = 0
KPG1 080012Z 07017KT 10/10 A3008 RMK A01 T00980098  RH  100%=      5-min Rain = 0
KPG1 080013Z 07018KT 10/10 A3007 RMK A01 T00980098  RH  100%=      5-min Rain = 0
KPG1 080014Z 07020KT 10/10 A3005 RMK A01 T00970097  RH  100%=      5-min Rain = 0
KPG1 080015Z 08019KT 10/10 A3005 RMK A01 T00970097  RH  100%=      5-min Rain = 0
KPG1 080016Z 08017KT 10/10 A3005 RMK A01 T00970097  RH  100%=      5-min Rain = 0
KPG1 080017Z 07016KT 10/10 A3005 RMK A01 T00970097  RH  100%=      5-min Rain = 0
KPG1 080018Z 08018KT 10/10 A3005 RMK A01 T00970097  RH  100%=      5-min Rain = 0
KPG1 080019Z 08017G22KT 10/10 A3004 RMK A01 T00970097  RH  100%=      5-min Rain = 0
KPG1 080020Z 07013G19KT 10/10 A3004 RMK A01 T00960096  RH  100%=      5-min Rain = 0
KPG1 080021Z 06010KT 10/10 A3005 RMK A01 T00960096  RH  100%=      5-min Rain = 0
KPG1 080022Z 08012KT 10/10 A3005 RMK A01 T00960096  RH  100%=      5-min Rain = 0
KPG1 080023Z 05012KT 10/10 A3005 RMK A01 T00960096  RH  100%=      5-min Rain = 0
KPG1 080024Z 06013KT 10/10 A3006 RMK A01 T00960096  RH  100%=      5-min Rain = 0
KPG1 080025Z 07012KT 09/09 A3006 RMK A01 T00940094  RH  100%=      5-min Rain = 0
KPG1 080026Z 06015KT 09/09 A3006 RMK A01 T00940094  RH  100%=      5-min Rain = 0
KPG1 080027Z 07014KT 09/09 A3007 RMK A01 T00920092  RH  100%=      5-min Rain = 0
KPG1 080028Z 06014KT 09/09 A3007 RMK A01 T00910091  RH  100%=      5-min Rain = 0
KPG1 080029Z 06014KT 09/09 A3006 RMK A01 T00900090  RH  100%=      5-min Rain = 0
KPG1 080030Z 07013KT 09/09 A3006 RMK A01 T00900090  RH  100%=      5-min Rain = 0
KPG1 080031Z 06009KT 09/09 A3007 RMK A01 T00900090  RH  100%=      5-min Rain = 0
KPG1 080032Z 06010KT 09/09 A3008 RMK A01 T00900090  RH  100%=      5-min Rain = 0
KPG1 080033Z 06008KT 09/09 A3008 RMK A01 T00900090  RH  100%=      5-min Rain = 0
KPG1 080034Z 06009KT 09/09 A3009 RMK A01 T00900090  RH  100%=      5-min Rain = 0
KPG1 080035Z 04010KT 09/09 A3009 RMK A01 T00900090  RH  100%=      5-min Rain = 0
KPG1 080036Z 05010KT 09/09 A3009 RMK A01 T00900090  RH  100%=      5-min Rain = 0
KPG1 080037Z 04008KT 09/09 A301 RMK A01 T00900090  RH  100%=      5-min Rain = 0
KPG1 080038Z 04010KT 09/09 A301 RMK A01 T00900090  RH  100%=      5-min Rain = 0
KPG1 080039Z 04010KT 09/09 A301 RMK A01 T00900090  RH  100%=      5-min Rain = 0
KPG1 080040Z 02010KT 09/09 A3011 RMK A01 T00900090  RH  100%=      5-min Rain = 0
KPG1 080041Z 02010KT 09/09 A3012 RMK A01 T00900090  RH  100%=      5-min Rain = 0
KPG1 080042Z 01010KT 09/09 A3012 RMK A01 T00900090  RH  100%=      5-min Rain = 0
KPG1 080043Z 01007KT 09/09 A3013 RMK A01 T00900090  RH  100%=      5-min Rain = 0
KPG1 080044Z 01010KT 09/09 A3013 RMK A01 T00890089  RH  100%=      5-min Rain = 0
KPG1 080045Z 01010KT 09/09 A3013 RMK A01 T00890089  RH  100%=      5-min Rain = 0
KPG1 080046Z 02010KT 09/09 A3012 RMK A01 T00890089  RH  100%=      5-min Rain = 0
KPG1 080047Z 02010KT 09/09 A3012 RMK A01 T00890089  RH  100%=      5-min Rain = 0
KPG1 080048Z 02010KT 09/09 A3012 RMK A01 T00890089  RH  100%=      5-min Rain = 0
KPG1 080049Z 02010KT 09/09 A3013 RMK A01 T00890089  RH  100%=      5-min Rain = 0
KPG1 080050Z 00009KT 09/09 A3013 RMK A01 T00890089  RH  100%=      5-min Rain = 0
KPG1 080051Z 01009KT 09/09 A3013 RMK A01 T00890089  RH  100%=      5-min Rain = 0
KPG1 080052Z 35010KT 09/09 A3014 RMK A01 T00890089  RH  100%=      5-min Rain = 0
KPG1 080053Z 35011KT 09/09 A3014 RMK A01 T00900090  RH  100%=      5-min Rain = 0
KPG1 080054Z 35012KT 09/09 A3015 RMK A01 T00910091  RH  100%=      5-min Rain = 0
KPG1 080055Z 36011KT 09/09 A3015 RMK A01 T00910091  RH  100%=      5-min Rain = 0
KPG1 080056Z 01011KT 09/09 A3015 RMK A01 T00900090  RH  100%=      5-min Rain = 0
KPG1 080057Z 01011KT 09/09 A3014 RMK A01 T00900090  RH  100%=      5-min Rain = 0
KPG1 080058Z 01009KT 09/09 A3014 RMK A01 T00900090  RH  100%=      5-min Rain = 0
KPG1 080059Z 02009KT 09/09 A3015 RMK A01 T00900090  RH  100%=      5-min Rain = 0
KPG1 080100Z 02009KT 09/09 A3015 RMK A01 T00900090  RH  100%=      5-min Rain = 0
KPG1 080101Z 03007KT 09/09 A3016 RMK A01 T00890089  RH  100%=      5-min Rain = 0
KPG1 080102Z 03008KT 09/09 A3016 RMK A01 T00890089  RH  100%=      5-min Rain = 0
KPG1 080103Z 03008KT 09/09 A3015 RMK A01 T00890089  RH  100%=      5-min Rain = 0
KPG1 080104Z 03009KT 09/09 A3015 RMK A01 T00890089  RH  100%=      5-min Rain = 0
KPG1 080105Z 04009KT 09/09 A3014 RMK A01 T00890089  RH  100%=      5-min Rain = 0
KPG1 080106Z 04009KT 09/09 A3014 RMK A01 T00890089  RH  100%=      5-min Rain = 0
KPG1 080107Z 04010KT 09/09 A3014 RMK A01 T00890089  RH  100%=      5-min Rain = 0
KPG1 080108Z 04009KT 09/09 A3014 RMK A01 T00890089  RH  100%=      5-min Rain = 0
KPG1 080109Z 04008KT 09/09 A3014 RMK A01 T00890089  RH  100%=      5-min Rain = 0
KPG1 080110Z 06008KT 09/09 A3014 RMK A01 T00890089  RH  100%=      5-min Rain = 0
KPG1 080111Z 05008KT 09/09 A3013 RMK A01 T00890089  RH  100%=      5-min Rain = 0
KPG1 080112Z 05008KT 09/09 A3013 RMK A01 T00890089  RH  100%=      5-min Rain = 0
KPG1 080113Z 05009KT 09/09 A3013 RMK A01 T00890089  RH  100%=      5-min Rain = 0
KPG1 080114Z 04009KT 09/09 A3013 RMK A01 T00890089  RH  100%=      5-min Rain = 0
KPG1 080115Z 05011KT 09/09 A3013 RMK A01 T00890089  RH  100%=      5-min Rain = 0
KPG1 080116Z 05010KT 09/09 A3012 RMK A01 T00890089  RH  100%=      5-min Rain = 0
KPG1 080117Z 04011KT 09/09 A3011 RMK A01 T00880088  RH  100%=      5-min Rain = 0
KPG1 080118Z 03011KT 09/09 A3011 RMK A01 T00890089  RH  100%=      5-min Rain = 0
KPG1 080119Z 03012KT 09/09 A3012 RMK A01 T00880088  RH  100%=      5-min Rain = 0
KPG1 080120Z 02011KT 09/09 A3013 RMK A01 T00890089  RH  100%=      5-min Rain = 0
KPG1 080121Z 02012KT 09/09 A3014 RMK A01 T00890089  RH  100%=      5-min Rain = 0
KPG1 080122Z 02011KT 09/09 A3014 RMK A01 T00880088  RH  100%=      5-min Rain = 0
KPG1 080123Z 01011KT 09/09 A3014 RMK A01 T00880088  RH  100%=      5-min Rain = 0
KPG1 080124Z 01012KT 09/09 A3014 RMK A01 T00880088  RH  100%=      5-min Rain = 0
KPG1 080125Z 01013KT 09/09 A3014 RMK A01 T00870087  RH  100%=      5-min Rain = 0
KPG1 080126Z 01012KT 09/09 A3014 RMK A01 T00860086  RH  100%=      5-min Rain = 0
KPG1 080127Z 01014KT 09/09 A3014 RMK A01 T00860086  RH  100%=      5-min Rain = 0
KPG1 080128Z 03012KT 09/09 A3014 RMK A01 T00850085  RH  100%=      5-min Rain = 0
KPG1 080129Z 03013KT 09/09 A3014 RMK A01 T00850085  RH  100%=      5-min Rain = 0
KPG1 080130Z 03012KT 09/09 A3014 RMK A01 T00850085  RH  100%=      5-min Rain = 0
KPG1 080131Z 04012KT 09/09 A3013 RMK A01 T00850085  RH  100%=      5-min Rain = 0
KPG1 080132Z 05012KT 09/09 A3013 RMK A01 T00850085  RH  100%=      5-min Rain = 0
KPG1 080133Z 05012KT 09/09 A3013 RMK A01 T00850085  RH  100%=      5-min Rain = 0
KPG1 080134Z 05010KT 09/09 A3013 RMK A01 T00850085  RH  100%=      5-min Rain = 0
KPG1 080135Z 04013KT 09/09 A3014 RMK A01 T00850085  RH  100%=      5-min Rain = 0
KPG1 080136Z 03012KT 08/08 A3014 RMK A01 T00840084  RH  100%=      5-min Rain = 0
KPG1 080137Z 03013KT 08/08 A3014 RMK A01 T00830083  RH  100%=      5-min Rain = 0
KPG1 080138Z 02013KT 08/08 A3014 RMK A01 T00820082  RH  100%=      5-min Rain = 0
KPG1 080139Z 03015KT 08/08 A3013 RMK A01 T00810081  RH  100%=      5-min Rain = 0
KPG1 080140Z 03014KT 08/08 A3013 RMK A01 T00800080  RH  100%=      5-min Rain = 0
KPG1 080141Z 04012KT 08/08 A3013 RMK A01 T00790079  RH  100%=      5-min Rain = 0
KPG1 080142Z 04013KT 08/08 A3014 RMK A01 T00780078  RH  100%=      5-min Rain = 0
KPG1 080143Z 04011KT 08/08 A3014 RMK A01 T00780078  RH  100%=      5-min Rain = 0
KPG1 080144Z 04013KT 08/08 A3014 RMK A01 T00770077  RH  100%=      5-min Rain = 0
KPG1 080145Z 04014KT 08/08 A3014 RMK A01 T00760076  RH  100%=      5-min Rain = 0
KPG1 080146Z 04013KT 08/08 A3014 RMK A01 T00750075  RH  100%=      5-min Rain = 0
KPG1 080147Z 05013KT 08/08 A3014 RMK A01 T00750075  RH  100%=      5-min Rain = 0
KPG1 080148Z 05014KT 08/08 A3014 RMK A01 T00750075  RH  100%=      5-min Rain = 0
KPG1 080149Z 04014KT 08/07 A3014 RMK A01 T00750074  RH  100%=      5-min Rain = 0
KPG1 080150Z 05012KT 08/07 A3013 RMK A01 T00750074  RH  100%=      5-min Rain = 0
KPG1 080151Z 05012KT 08/08 A3013 RMK A01 T00750075  RH  100%=      5-min Rain = 0
KPG1 080152Z 05012KT 08/08 A3014 RMK A01 T00750075  RH  100%=      5-min Rain = 0
KPG1 080153Z 04013KT 08/08 A3013 RMK A01 T00750075  RH  100%=      5-min Rain = 0
KPG1 080154Z 04015KT 08/08 A3013 RMK A01 T00750075  RH  100%=      5-min Rain = 0
KPG1 080155Z 04014KT 08/07 A3013 RMK A01 T00750074  RH  100%=      5-min Rain = 0
KPG1 080156Z 04012KT 07/07 A3014 RMK A01 T00740074  RH  100%=      5-min Rain = 0
KPG1 080157Z 04012KT 07/07 A3014 RMK A01 T00740074  RH  100%=      5-min Rain = 0
KPG1 080158Z 04014KT 08/07 A3015 RMK A01 T00750074  RH  100%=      5-min Rain = 0
KPG1 080159Z 04014KT 07/07 A3015 RMK A01 T00740073  RH  100%=      5-min Rain = 0
KPG1 080200Z 04014KT 07/07 A3015 RMK A01 T00740074  RH  100%=      5-min Rain = 0
KPG1 080201Z 04016KT 07/07 A3014 RMK A01 T00730073  RH  100%=      5-min Rain = 0
KPG1 080202Z 03016KT 07/07 A3014 RMK A01 T00730073  RH  100%=      5-min Rain = 0
KPG1 080203Z 03016KT 07/07 A3014 RMK A01 T00730073  RH  100%=      5-min Rain = 0
KPG1 080204Z 03017KT 07/07 A3014 RMK A01 T00730073  RH  100%=      5-min Rain = 0
KPG1 080205Z 04015KT 07/07 A3014 RMK A01 T00730072  RH  100%=      5-min Rain = 0
KPG1 080206Z 04014KT 07/07 A3014 RMK A01 T00730072  RH  100%=      5-min Rain = 0
KPG1 080207Z 05013KT 07/07 A3014 RMK A01 T00730072  RH  100%=      5-min Rain = 0
KPG1 080208Z 05012KT 07/07 A3015 RMK A01 T00730072  RH  100%=      5-min Rain = 0
KPG1 080209Z 06011KT 07/07 A3016 RMK A01 T00730072  RH  100%=      5-min Rain = 0
KPG1 080210Z 06012KT 07/07 A3016 RMK A01 T00730072  RH  100%=      5-min Rain = 0
KPG1 080211Z 06014KT 07/07 A3016 RMK A01 T00730072  RH  100%=      5-min Rain = 0
KPG1 080212Z 06014KT 07/07 A3016 RMK A01 T00720072  RH  100%=      5-min Rain = 0
KPG1 080213Z 06013KT 07/07 A3016 RMK A01 T00730072  RH  100%=      5-min Rain = 0
KPG1 080214Z 06016KT 07/07 A3016 RMK A01 T00730072  RH  099%=      5-min Rain = 0
KPG1 080215Z 06017KT 07/07 A3015 RMK A01 T00720071  RH  099%=      5-min Rain = 0
KPG1 080216Z 05016KT 07/07 A3015 RMK A01 T00720071  RH  099%=      5-min Rain = 0
KPG1 080217Z 05016KT 07/07 A3015 RMK A01 T00720071  RH  099%=      5-min Rain = 0
KPG1 080218Z 04014KT 07/07 A3015 RMK A01 T00720071  RH  099%=      5-min Rain = 0
KPG1 080219Z 04016KT 07/07 A3016 RMK A01 T00720071  RH  099%=      5-min Rain = 0
KPG1 080220Z 04017KT 07/07 A3016 RMK A01 T00710070  RH  099%=      5-min Rain = 0
KPG1 080221Z 04014KT 07/07 A3016 RMK A01 T00710070  RH  099%=      5-min Rain = 0
KPG1 080222Z 04012KT 07/07 A3016 RMK A01 T00710070  RH  099%=      5-min Rain = 0
KPG1 080223Z 05012KT 07/07 A3015 RMK A01 T00710070  RH  099%=      5-min Rain = 0
KPG1 080224Z 04014KT 07/07 A3015 RMK A01 T00710070  RH  099%=      5-min Rain = 0
KPG1 080225Z 04015KT 07/07 A3016 RMK A01 T00710070  RH  099%=      5-min Rain = 0
KPG1 080226Z 04018KT 07/07 A3015 RMK A01 T00710069  RH  099%=      5-min Rain = 0
KPG1 080227Z 03017KT 07/07 A3015 RMK A01 T00700069  RH  099%=      5-min Rain = 0
KPG1 080228Z 03018KT 07/07 A3015 RMK A01 T00700069  RH  099%=      5-min Rain = 0
KPG1 080229Z 03017KT 07/07 A3016 RMK A01 T00690068  RH  099%=      5-min Rain = 0
KPG1 080230Z 04017KT 07/07 A3016 RMK A01 T00690068  RH  099%=      5-min Rain = 0
KPG1 080231Z 04017KT 07/07 A3016 RMK A01 T00690068  RH  099%=      5-min Rain = 0
KPG1 080232Z 04014KT 07/07 A3016 RMK A01 T00690068  RH  099%=      5-min Rain = 0
KPG1 080233Z 04015KT 07/07 A3016 RMK A01 T00690068  RH  099%=      5-min Rain = 0
KPG1 080234Z 04017KT 07/07 A3016 RMK A01 T00690068  RH  099%=      5-min Rain = 0
KPG1 080235Z 04017KT 07/07 A3016 RMK A01 T00690068  RH  099%=      5-min Rain = 0
KPG1 080236Z 04018KT 07/07 A3015 RMK A01 T00680067  RH  099%=      5-min Rain = 0
KPG1 080237Z 04018KT 07/07 A3016 RMK A01 T00680066  RH  099%=      5-min Rain = 0
KPG1 080238Z 03017KT 07/07 A3016 RMK A01 T00670066  RH  099%=      5-min Rain = 0
KPG1 080239Z 03019KT 07/07 A3016 RMK A01 T00670066  RH  099%=      5-min Rain = 0
KPG1 080240Z 03019KT 07/07 A3016 RMK A01 T00670066  RH  099%=      5-min Rain = 0
KPG1 080241Z 03019KT 07/07 A3016 RMK A01 T00670066  RH  099%=      5-min Rain = 0
KPG1 080242Z 04018KT 07/07 A3016 RMK A01 T00670065  RH  099%=      5-min Rain = 0
KPG1 080243Z 04019KT 07/07 A3016 RMK A01 T00670065  RH  099%=      5-min Rain = 0
KPG1 080244Z 04018KT 07/07 A3016 RMK A01 T00660065  RH  099%=      5-min Rain = 0
KPG1 080245Z 03018KT 07/07 A3016 RMK A01 T00660065  RH  099%=      5-min Rain = 0
KPG1 080246Z 03018KT 07/07 A3016 RMK A01 T00660065  RH  099%=      5-min Rain = 0
KPG1 080247Z 03017KT 07/07 A3016 RMK A01 T00660065  RH  099%=      5-min Rain = 0
KPG1 080248Z 03018KT 07/07 A3016 RMK A01 T00660065  RH  099%=      5-min Rain = 0
KPG1 080249Z 04019KT 07/07 A3016 RMK A01 T00660065  RH  099%=      5-min Rain = 0
KPG1 080250Z 04016KT 07/07 A3016 RMK A01 T00660065  RH  099%=      5-min Rain = 0
KPG1 080251Z 03017KT 07/07 A3016 RMK A01 T00660065  RH  099%=      5-min Rain = 0
KPG1 080252Z 03017KT 07/07 A3016 RMK A01 T00660065  RH  099%=      5-min Rain = 0
KPG1 080253Z 03018KT 07/07 A3016 RMK A01 T00660065  RH  099%=      5-min Rain = 0
KPG1 080254Z 03017KT 07/07 A3016 RMK A01 T00660065  RH  099%=      5-min Rain = 0
KPG1 080255Z 03016KT 07/07 A3016 RMK A01 T00660065  RH  099%=      5-min Rain = 0
KPG1 080256Z 04016KT 07/07 A3016 RMK A01 T00660065  RH  099%=      5-min Rain = 0
KPG1 080257Z 04015KT 07/07 A3016 RMK A01 T00660065  RH  099%=      5-min Rain = 0
KPG1 080258Z 03016KT 07/06 A3016 RMK A01 T00660064  RH  099%=      5-min Rain = 0
KPG1 080259Z 04016KT 07/07 A3015 RMK A01 T00660065  RH  099%=      5-min Rain = 0
KPG1 080300Z 04015KT 07/07 A3015 RMK A01 T00660065  RH  099%=      5-min Rain = 0
KPG1 080301Z 04014KT 07/07 A3015 RMK A01 T00660065  RH  099%=      5-min Rain = 0
KPG1 080302Z 04016KT 07/06 A3015 RMK A01 T00650064  RH  099%=      5-min Rain = 0
KPG1 080303Z 04017KT 07/06 A3015 RMK A01 T00650064  RH  099%=      5-min Rain = 0
KPG1 080304Z 04016KT 07/06 A3014 RMK A01 T00650064  RH  099%=      5-min Rain = 0
KPG1 080305Z 04016KT 07/06 A3014 RMK A01 T00650064  RH  099%=      5-min Rain = 0
KPG1 080306Z 03018KT 07/06 A3014 RMK A01 T00650064  RH  099%=      5-min Rain = 0
KPG1 080307Z 03020KT 07/06 A3014 RMK A01 T00650063  RH  099%=      5-min Rain = 0
KPG1 080308Z 03018KT 07/06 A3014 RMK A01 T00650064  RH  099%=      5-min Rain = 0
KPG1 080309Z 04020KT 07/06 A3015 RMK A01 T00650064  RH  099%=      5-min Rain = 0
KPG1 080310Z 03017KT 07/06 A3015 RMK A01 T00650064  RH  099%=      5-min Rain = 0.01
KPG1 080311Z 04018KT 07/06 A3015 RMK A01 T00650063  RH  099%=      5-min Rain = 0
KPG1 080312Z 04018KT 07/06 A3015 RMK A01 T00650064  RH  099%=      5-min Rain = 0
KPG1 080313Z 04015KT 07/06 A3015 RMK A01 T00650063  RH  099%=      5-min Rain = 0
KPG1 080314Z 04014G19KT 07/06 A3016 RMK A01 T00650064  RH  099%=      5-min Rain = 0
KPG1 080315Z 04016KT 07/06 A3016 RMK A01 T00650064  RH  099%=      5-min Rain = 0
KPG1 080316Z 04017KT 07/06 A3015 RMK A01 T00650064  RH  099%=      5-min Rain = 0
KPG1 080317Z 03015KT 07/06 A3015 RMK A01 T00650064  RH  099%=      5-min Rain = 0
KPG1 080318Z 03017KT 07/06 A3015 RMK A01 T00650064  RH  099%=      5-min Rain = 0
KPG1 080319Z 03018KT 07/06 A3015 RMK A01 T00650064  RH  099%=      5-min Rain = 0
KPG1 080320Z 03019KT 07/06 A3015 RMK A01 T00650064  RH  099%=      5-min Rain = 0
KPG1 080321Z 03018KT 07/06 A3015 RMK A01 T00650064  RH  099%=      5-min Rain = 0
KPG1 080322Z 04018KT 07/06 A3015 RMK A01 T00650064  RH  099%=      5-min Rain = 0
KPG1 080323Z 03018KT 07/06 A3015 RMK A01 T00650064  RH  099%=      5-min Rain = 0
KPG1 080324Z 04015G22KT 07/06 A3015 RMK A01 T00650064  RH  099%=      5-min Rain = 0
KPG1 080325Z 04019KT 07/06 A3015 RMK A01 T00650064  RH  099%=      5-min Rain = 0
KPG1 080326Z 03018KT 07/06 A3015 RMK A01 T00650064  RH  099%=      5-min Rain = 0
KPG1 080327Z 03017KT 07/06 A3015 RMK A01 T00650063  RH  099%=      5-min Rain = 0
KPG1 080328Z 03016KT 07/06 A3015 RMK A01 T00650064  RH  099%=      5-min Rain = 0
KPG1 080329Z 04019KT 07/06 A3015 RMK A01 T00650063  RH  099%=      5-min Rain = 0
KPG1 080330Z 04019KT 07/06 A3015 RMK A01 T00650064  RH  099%=      5-min Rain = 0
KPG1 080331Z 04016KT 07/06 A3015 RMK A01 T00650063  RH  099%=      5-min Rain = 0
KPG1 080332Z 04017KT 06/06 A3015 RMK A01 T00640063  RH  099%=      5-min Rain = 0
KPG1 080333Z 04018KT 06/06 A3015 RMK A01 T00640063  RH  099%=      5-min Rain = 0
KPG1 080334Z 04019KT 06/06 A3015 RMK A01 T00640063  RH  099%=      5-min Rain = 0
KPG1 080335Z 04017KT 06/06 A3015 RMK A01 T00640063  RH  099%=      5-min Rain = 0
KPG1 080336Z 04016KT 06/06 A3015 RMK A01 T00640063  RH  099%=      5-min Rain = 0
KPG1 080337Z 04017KT 06/06 A3015 RMK A01 T00640063  RH  099%=      5-min Rain = 0
KPG1 080338Z 05018KT 06/06 A3015 RMK A01 T00640063  RH  099%=      5-min Rain = 0
KPG1 080339Z 04019KT 06/06 A3015 RMK A01 T00640063  RH  099%=      5-min Rain = 0
KPG1 080340Z 04018KT 06/06 A3015 RMK A01 T00640063  RH  099%=      5-min Rain = 0
KPG1 080341Z 04018KT 06/06 A3015 RMK A01 T00630062  RH  099%=      5-min Rain = 0
KPG1 080342Z 04017KT 06/06 A3015 RMK A01 T00640063  RH  099%=      5-min Rain = 0
KPG1 080343Z 04018KT 06/06 A3015 RMK A01 T00630062  RH  099%=      5-min Rain = 0
KPG1 080344Z 04016KT 06/06 A3016 RMK A01 T00630062  RH  099%=      5-min Rain = 0
KPG1 080345Z 03017KT 06/06 A3015 RMK A01 T00630062  RH  099%=      5-min Rain = 0
KPG1 080346Z 04016KT 06/06 A3016 RMK A01 T00630061  RH  099%=      5-min Rain = 0
KPG1 080347Z 03018KT 06/06 A3015 RMK A01 T00630062  RH  099%=      5-min Rain = 0
KPG1 080348Z 04019KT 06/06 A3016 RMK A01 T00630062  RH  099%=      5-min Rain = 0
KPG1 080349Z 03019KT 06/06 A3016 RMK A01 T00630061  RH  099%=      5-min Rain = 0
KPG1 080350Z 03018KT 06/06 A3016 RMK A01 T00620061  RH  099%=      5-min Rain = 0
KPG1 080351Z 03019KT 06/06 A3016 RMK A01 T00620061  RH  099%=      5-min Rain = 0
KPG1 080352Z 03019KT 06/06 A3016 RMK A01 T00620061  RH  099%=      5-min Rain = 0
KPG1 080353Z 03018KT 06/06 A3016 RMK A01 T00620061  RH  099%=      5-min Rain = 0
KPG1 080354Z 03019KT 06/06 A3016 RMK A01 T00620061  RH  099%=      5-min Rain = 0
KPG1 080355Z 03017KT 06/06 A3016 RMK A01 T00620061  RH  099%=      5-min Rain = 0
KPG1 080356Z 03017KT 06/06 A3016 RMK A01 T00630062  RH  099%=      5-min Rain = 0
KPG1 080357Z 04018KT 06/06 A3016 RMK A01 T00620061  RH  099%=      5-min Rain = 0
KPG1 080358Z 04017KT 06/06 A3016 RMK A01 T00620061  RH  099%=      5-min Rain = 0
KPG1 080359Z 03014KT 06/06 A3016 RMK A01 T00630061  RH  099%=      5-min Rain = 0
KPG1 080400Z 04016KT 06/06 A3016 RMK A01 T00620061  RH  099%=      5-min Rain = 0
KPG1 080401Z 03014KT 06/06 A3016 RMK A01 T00630062  RH  099%=      5-min Rain = 0
KPG1 080402Z 03016KT 06/06 A3016 RMK A01 T00620062  RH  099%=      5-min Rain = 0
KPG1 080403Z 03017KT 06/06 A3016 RMK A01 T00620062  RH  099%=      5-min Rain = 0
KPG1 080404Z 03017KT 06/06 A3016 RMK A01 T00620061  RH  099%=      5-min Rain = 0
KPG1 080405Z 03016KT 06/06 A3016 RMK A01 T00620061  RH  099%=      5-min Rain = 0
KPG1 080406Z 03017KT 06/06 A3016 RMK A01 T00620061  RH  099%=      5-min Rain = 0
KPG1 080407Z 03016KT 06/06 A3016 RMK A01 T00620061  RH  099%=      5-min Rain = 0
KPG1 080408Z 03015KT 06/06 A3016 RMK A01 T00620061  RH  099%=      5-min Rain = 0
KPG1 080409Z 03016KT 06/06 A3015 RMK A01 T00620061  RH  099%=      5-min Rain = 0
KPG1 080410Z 03016KT 06/06 A3015 RMK A01 T00620062  RH  099%=      5-min Rain = 0
KPG1 080411Z 03017KT 06/06 A3015 RMK A01 T00620061  RH  099%=      5-min Rain = 0
KPG1 080412Z 03015KT 06/06 A3015 RMK A01 T00630062  RH  099%=      5-min Rain = 0
KPG1 080413Z 03014KT 06/06 A3016 RMK A01 T00630062  RH  099%=      5-min Rain = 0
KPG1 080414Z 03015KT 06/06 A3016 RMK A01 T00630062  RH  099%=      5-min Rain = 0
KPG1 080415Z 03017KT 06/06 A3016 RMK A01 T00620062  RH  099%=      5-min Rain = 0
KPG1 080416Z 03017KT 06/06 A3016 RMK A01 T00620062  RH  099%=      5-min Rain = 0
KPG1 080417Z 03017KT 06/06 A3016 RMK A01 T00630062  RH  099%=      5-min Rain = 0
KPG1 080418Z 03017KT 06/06 A3016 RMK A01 T00620062  RH  099%=      5-min Rain = 0
KPG1 080419Z 03015KT 06/06 A3016 RMK A01 T00620062  RH  099%=      5-min Rain = 0
KPG1 080420Z 03015KT 06/06 A3016 RMK A01 T00620062  RH  099%=      5-min Rain = 0
KPG1 080421Z 03013KT 06/06 A3017 RMK A01 T00620062  RH  099%=      5-min Rain = 0
KPG1 080422Z 03013KT 06/06 A3017 RMK A01 T00630062  RH  099%=      5-min Rain = 0
KPG1 080423Z 03015KT 06/06 A3016 RMK A01 T00630062  RH  099%=      5-min Rain = 0
KPG1 080424Z 04015KT 06/06 A3016 RMK A01 T00630062  RH  100%=      5-min Rain = 0
KPG1 080425Z 04015KT 06/06 A3016 RMK A01 T00630062  RH  100%=      5-min Rain = 0
KPG1 080426Z 04014KT 06/06 A3016 RMK A01 T00630062  RH  099%=      5-min Rain = 0
KPG1 080427Z 04014KT 06/06 A3016 RMK A01 T00630062  RH  100%=      5-min Rain = 0
KPG1 080428Z 04015KT 06/06 A3016 RMK A01 T00630062  RH  100%=      5-min Rain = 0
KPG1 080429Z 04015KT 06/06 A3016 RMK A01 T00630062  RH  100%=      5-min Rain = 0
KPG1 080430Z 03014KT 06/06 A3016 RMK A01 T00630062  RH  100%=      5-min Rain = 0
KPG1 080431Z 03015KT 06/06 A3016 RMK A01 T00630062  RH  100%=      5-min Rain = 0
KPG1 080432Z 03016KT 06/06 A3016 RMK A01 T00630062  RH  100%=      5-min Rain = 0
KPG1 080433Z 04016KT 06/06 A3016 RMK A01 T00630062  RH  100%=      5-min Rain = 0
KPG1 080434Z 03015KT 06/06 A3016 RMK A01 T00630062  RH  100%=      5-min Rain = 0
KPG1 080435Z 03015KT 06/06 A3016 RMK A01 T00630062  RH  100%=      5-min Rain = 0
KPG1 080436Z 04015KT 06/06 A3016 RMK A01 T00630062  RH  100%=      5-min Rain = 0
KPG1 080437Z 03017KT 06/06 A3016 RMK A01 T00630062  RH  100%=      5-min Rain = 0
KPG1 080438Z 04017KT 06/06 A3016 RMK A01 T00620062  RH  100%=      5-min Rain = 0
KPG1 080439Z 03017KT 06/06 A3016 RMK A01 T00620062  RH  100%=      5-min Rain = 0
KPG1 080440Z 03016KT 06/06 A3016 RMK A01 T00620061  RH  100%=      5-min Rain = 0
KPG1 080441Z 03016KT 06/06 A3016 RMK A01 T00620061  RH  100%=      5-min Rain = 0
KPG1 080442Z 04017KT 06/06 A3016 RMK A01 T00620061  RH  100%=      5-min Rain = 0
KPG1 080443Z 03015KT 06/06 A3016 RMK A01 T00620061  RH  100%=      5-min Rain = 0
KPG1 080444Z 02014KT 06/06 A3016 RMK A01 T00620061  RH  100%=      5-min Rain = 0
KPG1 080445Z 03016KT 06/06 A3016 RMK A01 T00620061  RH  100%=      5-min Rain = 0
KPG1 080446Z 03016KT 06/06 A3016 RMK A01 T00620062  RH  100%=      5-min Rain = 0
KPG1 080447Z 03016KT 06/06 A3016 RMK A01 T00620062  RH  100%=      5-min Rain = 0
KPG1 080448Z 03017KT 06/06 A3016 RMK A01 T00620062  RH  100%=      5-min Rain = 0
KPG1 080449Z 04016KT 06/06 A3016 RMK A01 T00620061  RH  100%=      5-min Rain = 0
KPG1 080450Z 04015KT 06/06 A3016 RMK A01 T00620061  RH  100%=      5-min Rain = 0
KPG1 080451Z 03016KT 06/06 A3016 RMK A01 T00620061  RH  100%=      5-min Rain = 0
KPG1 080452Z 03017KT 06/06 A3016 RMK A01 T00620061  RH  100%=      5-min Rain = 0
KPG1 080453Z 03017KT 06/06 A3016 RMK A01 T00620061  RH  100%=      5-min Rain = 0
KPG1 080454Z 03017KT 06/06 A3016 RMK A01 T00620061  RH  100%=      5-min Rain = 0
KPG1 080455Z 03017KT 06/06 A3016 RMK A01 T00620061  RH  100%=      5-min Rain = 0
KPG1 080456Z 03018KT 06/06 A3016 RMK A01 T00620061  RH  100%=      5-min Rain = 0
KPG1 080457Z 04019KT 06/06 A3016 RMK A01 T00610061  RH  100%=      5-min Rain = 0
KPG1 080458Z 04018KT 06/06 A3016 RMK A01 T00610060  RH  100%=      5-min Rain = 0
KPG1 080459Z 04018KT 06/06 A3016 RMK A01 T00610061  RH  100%=      5-min Rain = 0
KPG1 080500Z 04017KT 06/06 A3016 RMK A01 T00610061  RH  100%=      5-min Rain = 0
KPG1 080501Z 03015KT 06/06 A3016 RMK A01 T00610061  RH  100%=      5-min Rain = 0
KPG1 080502Z 03017KT 06/06 A3016 RMK A01 T00610061  RH  100%=      5-min Rain = 0
KPG1 080503Z 04019KT 06/06 A3016 RMK A01 T00610060  RH  100%=      5-min Rain = 0
KPG1 080504Z 04018KT 06/06 A3016 RMK A01 T00610060  RH  100%=      5-min Rain = 0.01
KPG1 080505Z 04014KT 06/06 A3016 RMK A01 T00610061  RH  100%=      5-min Rain = 0
KPG1 080506Z 04013KT 06/06 A3016 RMK A01 T00610061  RH  100%=      5-min Rain = 0
KPG1 080507Z 03016KT 06/06 A3016 RMK A01 T00620061  RH  100%=      5-min Rain = 0
KPG1 080508Z 03016KT 06/06 A3016 RMK A01 T00610061  RH  100%=      5-min Rain = 0
KPG1 080509Z 03018KT 06/06 A3016 RMK A01 T00610061  RH  100%=      5-min Rain = 0
KPG1 080510Z 03018KT 06/06 A3016 RMK A01 T00610060  RH  100%=      5-min Rain = 0
KPG1 080511Z 03018KT 06/06 A3016 RMK A01 T00610060  RH  100%=      5-min Rain = 0
KPG1 080512Z 03018KT 06/06 A3016 RMK A01 T00610060  RH  100%=      5-min Rain = 0
KPG1 080513Z 03016KT 06/06 A3016 RMK A01 T00610060  RH  100%=      5-min Rain = 0
KPG1 080514Z 03018KT 06/06 A3016 RMK A01 T00610060  RH  100%=      5-min Rain = 0
KPG1 080515Z 03017KT 06/06 A3016 RMK A01 T00610060  RH  100%=      5-min Rain = 0
KPG1 080516Z 03019KT 06/06 A3016 RMK A01 T00610060  RH  100%=      5-min Rain = 0
KPG1 080517Z 03017KT 06/06 A3017 RMK A01 T00610060  RH  100%=      5-min Rain = 0
KPG1 080518Z 03017KT 06/06 A3017 RMK A01 T00610060  RH  100%=      5-min Rain = 0
KPG1 080519Z 03018KT 06/06 A3017 RMK A01 T00600060  RH  100%=      5-min Rain = 0
KPG1 080520Z 04017KT 06/06 A3017 RMK A01 T00610060  RH  100%=      5-min Rain = 0
KPG1 080521Z 04017KT 06/06 A3017 RMK A01 T00610060  RH  100%=      5-min Rain = 0
KPG1 080522Z 04016KT 06/06 A3017 RMK A01 T00610060  RH  099%=      5-min Rain = 0
KPG1 080523Z 04017KT 06/06 A3017 RMK A01 T00610060  RH  099%=      5-min Rain = 0
KPG1 080524Z 04019KT 06/06 A3017 RMK A01 T00610060  RH  099%=      5-min Rain = 0
KPG1 080525Z 04019KT 06/06 A3017 RMK A01 T00610060  RH  099%=      5-min Rain = 0
KPG1 080526Z 04017KT 06/06 A3017 RMK A01 T00610060  RH  099%=      5-min Rain = 0
KPG1 080527Z 04019KT 06/06 A3017 RMK A01 T00610060  RH  099%=      5-min Rain = 0
KPG1 080528Z 04019KT 06/06 A3017 RMK A01 T00600059  RH  099%=      5-min Rain = 0
KPG1 080529Z 04020KT 06/06 A3017 RMK A01 T00610060  RH  099%=      5-min Rain = 0
KPG1 080530Z 04019KT 06/06 A3017 RMK A01 T00610059  RH  099%=      5-min Rain = 0
KPG1 080531Z 04018KT 06/06 A3017 RMK A01 T00610059  RH  099%=      5-min Rain = 0
KPG1 080532Z 04018KT 06/06 A3017 RMK A01 T00610060  RH  099%=      5-min Rain = 0
KPG1 080533Z 04018KT 06/06 A3017 RMK A01 T00610059  RH  099%=      5-min Rain = 0
KPG1 080534Z 04019KT 06/06 A3017 RMK A01 T00610059  RH  099%=      5-min Rain = 0
KPG1 080535Z 04019KT 06/06 A3017 RMK A01 T00610059  RH  099%=      5-min Rain = 0
KPG1 080536Z 04018KT 06/06 A3017 RMK A01 T00600059  RH  099%=      5-min Rain = 0
KPG1 080537Z 04019KT 06/06 A3017 RMK A01 T00600058  RH  099%=      5-min Rain = 0
KPG1 080538Z 04017KT 06/06 A3017 RMK A01 T00600059  RH  099%=      5-min Rain = 0
KPG1 080539Z 04017KT 06/06 A3017 RMK A01 T00600058  RH  099%=      5-min Rain = 0
KPG1 080540Z 03017KT 06/06 A3017 RMK A01 T00600058  RH  099%=      5-min Rain = 0
KPG1 080541Z 04016KT 06/06 A3017 RMK A01 T00600058  RH  099%=      5-min Rain = 0
KPG1 080542Z 04016KT 06/06 A3017 RMK A01 T00600059  RH  099%=      5-min Rain = 0
KPG1 080543Z 03015KT 06/06 A3017 RMK A01 T00600058  RH  099%=      5-min Rain = 0
KPG1 080544Z 03015KT 06/06 A3017 RMK A01 T00600058  RH  099%=      5-min Rain = 0
KPG1 080545Z 04015KT 06/06 A3016 RMK A01 T00600058  RH  099%=      5-min Rain = 0
KPG1 080546Z 03015KT 06/06 A3016 RMK A01 T00600058  RH  099%=      5-min Rain = 0
KPG1 080547Z 04014KT 06/06 A3016 RMK A01 T00600058  RH  099%=      5-min Rain = 0
KPG1 080548Z 04015KT 06/06 A3016 RMK A01 T00600058  RH  099%=      5-min Rain = 0
KPG1 080549Z 04015KT 06/06 A3016 RMK A01 T00600058  RH  099%=      5-min Rain = 0
KPG1 080550Z 03016KT 06/06 A3016 RMK A01 T00600058  RH  099%=      5-min Rain = 0
KPG1 080551Z 03015KT 06/06 A3016 RMK A01 T00600058  RH  099%=      5-min Rain = 0
KPG1 080552Z 04015KT 06/06 A3016 RMK A01 T00600058  RH  099%=      5-min Rain = 0
KPG1 080553Z 04015KT 06/06 A3016 RMK A01 T00600058  RH  099%=      5-min Rain = 0
KPG1 080554Z 04013KT 06/06 A3016 RMK A01 T00600058  RH  099%=      5-min Rain = 0
KPG1 080555Z 04013KT 06/06 A3016 RMK A01 T00600058  RH  099%=      5-min Rain = 0
KPG1 080556Z 04012KT 06/06 A3016 RMK A01 T00600059  RH  099%=      5-min Rain = 0
KPG1 080557Z 04014KT 06/06 A3015 RMK A01 T00610059  RH  099%=      5-min Rain = 0
KPG1 080558Z 04013KT 06/06 A3015 RMK A01 T00610059  RH  099%=      5-min Rain = 0
KPG1 080559Z 04013KT 06/06 A3015 RMK A01 T00610059  RH  099%=      5-min Rain = 0

Page generated in 0.0704 seconds.